| time (UTC) | temp C | wind direction | speed KPH | gust KPH | rain 1hr cm | rain 24hr cm | rain mn cm | humidity % | barometer mb |
| 20260506162826 | 18 | 196 | 6.4 | 8.0 | 0.13 | 0.13 | 0.13 | 86 | 1009.6 |
| 20260506162722 | 18 | 183 | 3.2 | 4.8 | 0.13 | 0.13 | 0.13 | 86 | 1009.5 |
| 20260506162617 | 18 | 173 | 3.2 | 6.4 | 0.13 | 0.13 | 0.13 | 85 | 1009.4 |
| 20260506162529 | 18 | 201 | 4.8 | 6.4 | 0.13 | 0.13 | 0.13 | 85 | 1009.7 |
| 20260506162424 | 18 | 200 | 4.8 | 8.0 | 0.10 | 0.10 | 0.10 | 85 | 1009.7 |
| 20260506162339 | 18 | 214 | 4.8 | 6.4 | 0.10 | 0.10 | 0.10 | 85 | 1009.4 |
| 20260506162231 | 18 | 205 | 4.8 | 6.4 | 0.10 | 0.10 | 0.10 | 85 | 1009.6 |
| 20260506162126 | 18 | 174 | 3.2 | 6.4 | 0.10 | 0.10 | 0.10 | 85 | 1009.8 |
| 20260506162022 | 18 | 194 | 4.8 | 6.4 | 0.10 | 0.10 | 0.10 | 84 | 1009.6 |
| 20260506161917 | 18 | 204 | 1.6 | 3.2 | 0.10 | 0.10 | 0.10 | 84 | 1009.6 |
| 20260506161828 | 18 | 199 | 3.2 | 6.4 | 0.10 | 0.10 | 0.10 | 83 | 1009.8 |
| 20260506161723 | 18 | 193 | 4.8 | 8.0 | 0.10 | 0.10 | 0.10 | 82 | 1009.7 |
| 20260506161618 | 18 | 193 | 3.2 | 6.4 | 0.08 | 0.08 | 0.08 | 82 | 1009.8 |
| 20260506161529 | 18 | 192 | 3.2 | 6.4 | 0.08 | 0.08 | 0.08 | 82 | 1009.8 |
| 20260506161424 | 18 | 217 | 3.2 | 4.8 | 0.08 | 0.08 | 0.08 | 82 | 1009.7 |
| 20260506161319 | 18 | 203 | 3.2 | 8.0 | 0.05 | 0.05 | 0.05 | 81 | 1010.0 |
| 20260506161231 | 18 | 213 | 1.6 | 6.4 | 0.05 | 0.05 | 0.05 | 81 | 1009.9 |
| 20260506161125 | 18 | 204 | 4.8 | 6.4 | 0.05 | 0.05 | 0.05 | 80 | 1009.9 |
| 20260506161020 | 19 | 206 | 1.6 | 4.8 | 0.05 | 0.05 | 0.05 | 79 | 1009.9 |
| 20260506160915 | 19 | 182 | 3.2 | 6.4 | 0.05 | 0.05 | 0.05 | 79 | 1009.8 |
| 20260506160827 | 19 | 222 | 4.8 | 9.7 | 0.05 | 0.05 | 0.05 | 78 | 1009.6 |
| 20260506160721 | 19 | 195 | 3.2 | 6.4 | 0.05 | 0.05 | 0.05 | 78 | 1009.6 |
| 20260506160617 | 19 | 235 | 4.8 | 6.4 | 0.03 | 0.03 | 0.03 | 77 | 1009.6 |
| 20260506160528 | 19 | 173 | 3.2 | 4.8 | 0.03 | 0.03 | 0.03 | 77 | 1009.6 |
| 20260506160423 | 19 | 195 | 4.8 | 8.0 | 0.03 | 0.03 | 0.03 | 76 | 1009.8 |
| 20260506160319 | 19 | 206 | 3.2 | 6.4 | 0.03 | 0.03 | 0.03 | 76 | 1009.8 |
| 20260506160230 | 19 | 193 | 4.8 | 8.0 | 0.00 | 0.00 | 0.00 | 76 | 1009.7 |
| 20260506160137 | 20 | 183 | 3.2 | 3.2 | 0.00 | 0.00 | 0.00 | 77 | 1010.0 |
| 20260506160019 | 20 | 186 | 1.6 | 3.2 | 0.00 | 0.00 | 0.00 | 77 | 1009.7 |
| 20260506155951 | 20 | 183 | 3.2 | 3.2 | 0.00 | 0.00 | 0.00 | 76 | 1009.8 |
| 20260506155826 | 20 | 182 | 3.2 | 4.8 | 0.00 | 0.00 | 0.00 | 76 | 1009.8 |
| 20260506155740 | 20 | 190 | 3.2 | 4.8 | 0.00 | 0.00 | 0.00 | 74 | 1009.8 |
| 20260506155631 | 20 | 214 | 1.6 | 4.8 | 0.00 | 0.00 | 0.00 | 74 | 1009.9 |
| 20260506155526 | 20 | 203 | 1.6 | 8.0 | 0.00 | 0.00 | 0.00 | 73 | 1010.0 |
| 20260506155419 | 20 | 220 | 6.4 | 8.0 | 0.00 | 0.00 | 0.00 | 72 | 1010.0 |
| 20260506155335 | 20 | 185 | 4.8 | 11.3 | 0.00 | 0.00 | 0.00 | 72 | 1010.0 |
| 20260506155226 | 20 | 226 | 4.8 | 11.3 | 0.00 | 0.00 | 0.00 | 71 | 1009.8 |
| 20260506155121 | 20 | 201 | 11.3 | 17.7 | 0.00 | 0.00 | 0.00 | 70 | 1009.7 |
| 20260506155017 | 20 | 205 | 9.7 | 17.7 | 0.00 | 0.00 | 0.00 | 70 | 1009.8 |
| 20260506154928 | 20 | 201 | 8.0 | 19.3 | 0.00 | 0.00 | 0.00 | 69 | 1009.8 |
| 20260506154822 | 20 | 285 | 4.8 | 6.4 | 0.00 | 0.00 | 0.00 | 69 | 1009.6 |
| 20260506154717 | 20 | 206 | 6.4 | 14.5 | 0.00 | 0.00 | 0.00 | 70 | 1009.6 |
| 20260506154629 | 20 | 218 | 4.8 | 8.0 | 0.00 | 0.00 | 0.00 | 70 | 1009.8 |
| 20260506154523 | 20 | 224 | 4.8 | 12.9 | 0.00 | 0.00 | 0.00 | 69 | 1009.8 |
| 20260506154419 | 20 | 200 | 4.8 | 6.4 | 0.00 | 0.00 | 0.00 | 70 | 1009.8 |
| 20260506154330 | 20 | 246 | 4.8 | 14.5 | 0.00 | 0.00 | 0.00 | 69 | 1009.8 |
| 20260506154225 | 20 | 193 | 6.4 | 11.3 | 0.00 | 0.00 | 0.00 | 69 | 1009.9 |
| 20260506154120 | 20 | 209 | 4.8 | 9.7 | 0.00 | 0.00 | 0.00 | 68 | 1010.1 |
| 20260506154015 | 20 | 226 | 8.0 | 16.1 | 0.00 | 0.00 | 0.00 | 68 | 1010.0 |
| 20260506153926 | 20 | 191 | 6.4 | 11.3 | 0.00 | 0.00 | 0.00 | 69 | 1009.9 |
| 20260506153821 | 20 | 252 | 6.4 | 9.7 | 0.00 | 0.00 | 0.00 | 68 | 1009.8 |
| 20260506153715 | 20 | 209 | 3.2 | 6.4 | 0.00 | 0.00 | 0.00 | 68 | 1010.0 |
| 20260506153626 | 20 | 211 | 8.0 | 20.9 | 0.00 | 0.00 | 0.00 | 68 | 1010.0 |
| 20260506153521 | 21 | 203 | 8.0 | 16.1 | 0.00 | 0.00 | 0.00 | 68 | 1010.0 |
| 20260506153416 | 21 | 189 | 6.4 | 14.5 | 0.00 | 0.00 | 0.00 | 68 | 1009.9 |
| 20260506153348 | 20 | 215 | 4.8 | 12.9 | 0.00 | 0.00 | 0.00 | 68 | 1009.9 |
| 20260506153224 | 21 | 187 | 8.0 | 11.3 | 0.00 | 0.00 | 0.00 | 68 | 1009.8 |
| 20260506153119 | 21 | 206 | 6.4 | 11.3 | 0.00 | 0.00 | 0.00 | 68 | 1009.7 |
| 20260506153031 | 21 | 200 | 6.4 | 12.9 | 0.00 | 0.00 | 0.00 | 68 | 1009.6 |
| 20260506153005 | 20 | 195 | 4.8 | 12.9 | 0.00 | 0.00 | 0.00 | 69 | 1009.6 |
| 20260506152820 | 20 | 201 | 4.8 | 8.0 | 0.00 | 0.00 | 0.00 | 68 | 1009.7 |
| 20260506152730 | 20 | 237 | 3.2 | 9.7 | 0.00 | 0.00 | 0.00 | 68 | 1009.7 |
| 20260506152625 | 20 | 201 | 6.4 | 9.7 | 0.00 | 0.00 | 0.00 | 68 | 1009.7 |
| 20260506152520 | 20 | 196 | 6.4 | 8.0 | 0.00 | 0.00 | 0.00 | 68 | 1009.5 |
| 20260506152415 | 20 | 192 | 4.8 | 9.7 | 0.00 | 0.00 | 0.00 | 67 | 1009.7 |
| 20260506152347 | 20 | 200 | 8.0 | 16.1 | 0.00 | 0.00 | 0.00 | 68 | 1009.7 |
| 20260506152221 | 20 | 229 | 6.4 | 11.3 | 0.00 | 0.00 | 0.00 | 68 | 1009.8 |
| 20260506152116 | 20 | 192 | 6.4 | 9.7 | 0.00 | 0.00 | 0.00 | 68 | 1009.8 |
| 20260506152027 | 20 | 227 | 4.8 | 6.4 | 0.00 | 0.00 | 0.00 | 68 | 1009.6 |
| 20260506151922 | 20 | 208 | 6.4 | 8.0 | 0.00 | 0.00 | 0.00 | 68 | 1009.8 |
| 20260506151817 | 20 | 204 | 6.4 | 9.7 | 0.00 | 0.00 | 0.00 | 67 | 1009.7 |
| 20260506151728 | 20 | 251 | 3.2 | 8.0 | 0.00 | 0.00 | 0.00 | 67 | 1009.7 |
| 20260506151623 | 20 | 208 | 6.4 | 11.3 | 0.00 | 0.00 | 0.00 | 67 | 1009.7 |
| 20260506151517 | 20 | 247 | 3.2 | 4.8 | 0.00 | 0.00 | 0.00 | 67 | 1009.9 |
| 20260506151429 | 20 | 220 | 4.8 | 9.7 | 0.00 | 0.00 | 0.00 | 68 | 1009.7 |
| 20260506151324 | 20 | 203 | 4.8 | 6.4 | 0.00 | 0.00 | 0.00 | 68 | 1009.7 |
| 20260506151218 | 20 | 272 | 3.2 | 6.4 | 0.00 | 0.00 | 0.00 | 67 | 1009.7 |
| 20260506151149 | 20 | 212 | 9.7 | 14.5 | 0.00 | 0.00 | 0.00 | 67 | 1009.8 |
| 20260506151024 | 20 | 194 | 9.7 | 17.7 | 0.00 | 0.00 | 0.00 | 68 | 1009.8 |
| 20260506150921 | 20 | 204 | 8.0 | 11.3 | 0.00 | 0.00 | 0.00 | 68 | 1009.9 |
| 20260506150911 | 20 | 198 | 8.0 | 12.9 | 0.00 | 0.00 | 0.00 | 68 | 1009.9 |
| 20260506150726 | 20 | 238 | 8.0 | 11.3 | 0.00 | 0.00 | 0.00 | 68 | 1009.9 |
| 20260506150633 | 20 | 199 | 6.4 | 11.3 | 0.00 | 0.00 | 0.00 | 69 | 1010.1 |
| 20260506150515 | 20 | 192 | 6.4 | 9.7 | 0.00 | 0.00 | 0.00 | 68 | 1010.0 |
| 20260506150426 | 20 | 201 | 8.0 | 12.9 | 0.00 | 0.00 | 0.00 | 68 | 1009.9 |
| 20260506150322 | 20 | 218 | 9.7 | 20.9 | 0.00 | 0.00 | 0.00 | 67 | 1010.0 |
| 20260506150216 | 20 | 203 | 9.7 | 16.1 | 0.00 | 0.00 | 0.00 | 68 | 1010.0 |
| 20260506150128 | 20 | 223 | 9.7 | 17.7 | 0.00 | 0.00 | 0.00 | 66 | 1010.0 |
| 20260506150022 | 21 | 248 | 3.2 | 12.9 | 0.00 | 0.00 | 0.00 | 68 | 1010.2 |
| 20260506145936 | 21 | 203 | 11.3 | 19.3 | 0.00 | 0.00 | 0.00 | 67 | 1010.1 |
| 20260506145828 | 21 | 195 | 11.3 | 17.7 | 0.00 | 0.00 | 0.00 | 66 | 1009.9 |
| 20260506145724 | 21 | 204 | 9.7 | 17.7 | 0.00 | 0.00 | 0.00 | 66 | 1010.0 |
| 20260506145618 | 21 | 202 | 4.8 | 14.5 | 0.00 | 0.00 | 0.00 | 67 | 1009.8 |
| 20260506145530 | 21 | 201 | 6.4 | 11.3 | 0.00 | 0.00 | 0.00 | 66 | 1009.8 |
| 20260506145425 | 21 | 222 | 6.4 | 11.3 | 0.00 | 0.00 | 0.00 | 66 | 1010.0 |
| 20260506145321 | 21 | 205 | 4.8 | 12.9 | 0.00 | 0.00 | 0.00 | 66 | 1009.9 |
| 20260506145236 | 21 | 206 | 9.7 | 16.1 | 0.00 | 0.00 | 0.00 | 66 | 1009.9 |
| 20260506145127 | 21 | 205 | 8.0 | 9.7 | 0.00 | 0.00 | 0.00 | 67 | 1009.8 |
| 20260506145022 | 21 | 209 | 4.8 | 6.4 | 0.00 | 0.00 | 0.00 | 66 | 1010.0 |
| 20260506144917 | 21 | 206 | 6.4 | 12.9 | 0.00 | 0.00 | 0.00 | 67 | 1009.9 |
| 20260506144828 | 21 | 211 | 4.8 | 9.7 | 0.00 | 0.00 | 0.00 | 67 | 1009.8 |
| 20260506144723 | 21 | 202 | 3.2 | 6.4 | 0.00 | 0.00 | 0.00 | 67 | 1009.9 |
| 20260506144618 | 21 | 211 | 4.8 | 8.0 | 0.00 | 0.00 | 0.00 | 66 | 1010.0 |
| 20260506144530 | 21 | 199 | 8.0 | 12.9 | 0.00 | 0.00 | 0.00 | 66 | 1009.8 |
| 20260506144425 | 21 | 203 | 6.4 | 9.7 | 0.00 | 0.00 | 0.00 | 67 | 1010.0 |
| 20260506144320 | 21 | 203 | 8.0 | 12.9 | 0.00 | 0.00 | 0.00 | 66 | 1009.7 |
| 20260506144215 | 21 | 198 | 9.7 | 16.1 | 0.00 | 0.00 | 0.00 | 66 | 1009.8 |
| 20260506144126 | 21 | 215 | 6.4 | 17.7 | 0.00 | 0.00 | 0.00 | 66 | 1009.9 |
| 20260506144041 | 21 | 197 | 9.7 | 19.3 | 0.00 | 0.00 | 0.00 | 66 | 1009.9 |
| 20260506143916 | 21 | 212 | 8.0 | 14.5 | 0.00 | 0.00 | 0.00 | 66 | 1009.8 |
| 20260506143827 | 21 | 202 | 8.0 | 9.7 | 0.00 | 0.00 | 0.00 | 67 | 1009.7 |
| 20260506143722 | 21 | 209 | 8.0 | 9.7 | 0.00 | 0.00 | 0.00 | 66 | 1009.8 |
| 20260506143617 | 21 | 212 | 8.0 | 11.3 | 0.00 | 0.00 | 0.00 | 66 | 1010.0 |
| 20260506143550 | 21 | 220 | 4.8 | 8.0 | 0.00 | 0.00 | 0.00 | 66 | 1010.0 |
| 20260506143423 | 21 | 198 | 9.7 | 17.7 | 0.00 | 0.00 | 0.00 | 66 | 1010.1 |
| 20260506143319 | 21 | 204 | 6.4 | 22.5 | 0.00 | 0.00 | 0.00 | 67 | 1010.0 |
| 20260506143230 | 21 | 188 | 8.0 | 11.3 | 0.00 | 0.00 | 0.00 | 67 | 1009.9 |
| 20260506143125 | 21 | 210 | 4.8 | 9.7 | 0.00 | 0.00 | 0.00 | 67 | 1010.1 |
| 20260506143020 | 21 | 205 | 4.8 | 8.0 | 0.00 | 0.00 | 0.00 | 67 | 1010.1 |
| 20260506142935 | 21 | 204 | 3.2 | 8.0 | 0.00 | 0.00 | 0.00 | 67 | 1010.0 |
| 20260506142827 | 21 | 233 | 6.4 | 11.3 | 0.00 | 0.00 | 0.00 | 66 | 1009.8 |
| 20260506142722 | 21 | 235 | 4.8 | 12.9 | 0.00 | 0.00 | 0.00 | 67 | 1009.9 |
| 20260506142617 | 21 | 204 | 9.7 | 17.7 | 0.00 | 0.00 | 0.00 | 67 | 1009.8 |
| 20260506142528 | 21 | 187 | 6.4 | 11.3 | 0.00 | 0.00 | 0.00 | 67 | 1009.9 |
| 20260506142420 | 21 | 211 | 8.0 | 11.3 | 0.00 | 0.00 | 0.00 | 68 | 1009.6 |
| 20260506142319 | 20 | 223 | 6.4 | 16.1 | 0.00 | 0.00 | 0.00 | 67 | 1009.6 |
| 20260506142230 | 20 | 213 | 8.0 | 16.1 | 0.00 | 0.00 | 0.00 | 68 | 1010.0 |
| 20260506142125 | 20 | 206 | 4.8 | 8.0 | 0.00 | 0.00 | 0.00 | 68 | 1009.7 |
| 20260506142020 | 20 | 199 | 4.8 | 8.0 | 0.00 | 0.00 | 0.00 | 69 | 1009.9 |
| 20260506141931 | 20 | 208 | 4.8 | 12.9 | 0.00 | 0.00 | 0.00 | 68 | 1009.8 |
| 20260506141926 | 20 | 205 | 9.7 | 16.1 | 0.00 | 0.00 | 0.00 | 68 | 1009.7 |
| 20260506141721 | 20 | 192 | 4.8 | 6.4 | 0.00 | 0.00 | 0.00 | 68 | 1009.8 |
| 20260506141615 | 20 | 220 | 4.8 | 14.5 | 0.00 | 0.00 | 0.00 | 68 | 1009.9 |
| 20260506141527 | 20 | 219 | 8.0 | 19.3 | 0.00 | 0.00 | 0.00 | 68 | 1009.9 |
| 20260506141422 | 20 | 208 | 4.8 | 8.0 | 0.00 | 0.00 | 0.00 | 68 | 1010.0 |
| 20260506141316 | 20 | 215 | 6.4 | 11.3 | 0.00 | 0.00 | 0.00 | 68 | 1009.9 |
| 20260506141247 | 20 | 207 | 8.0 | 12.9 | 0.00 | 0.00 | 0.00 | 68 | 1010.0 |
| 20260506141122 | 20 | 200 | 8.0 | 14.5 | 0.00 | 0.00 | 0.00 | 69 | 1010.0 |
| 20260506141017 | 20 | 209 | 8.0 | 9.7 | 0.00 | 0.00 | 0.00 | 69 | 1009.9 |
| 20260506140948 | 20 | 212 | 6.4 | 14.5 | 0.00 | 0.00 | 0.00 | 68 | 1010.0 |
| 20260506140823 | 20 | 233 | 4.8 | 8.0 | 0.00 | 0.00 | 0.00 | 69 | 1009.9 |
| 20260506140718 | 20 | 210 | 8.0 | 11.3 | 0.00 | 0.00 | 0.00 | 68 | 1009.8 |
| 20260506140630 | 20 | 233 | 4.8 | 11.3 | 0.00 | 0.00 | 0.00 | 69 | 1009.9 |
| 20260506140525 | 20 | 197 | 6.4 | 11.3 | 0.00 | 0.00 | 0.00 | 69 | 1009.7 |
| 20260506140420 | 20 | 244 | 4.8 | 8.0 | 0.00 | 0.00 | 0.00 | 69 | 1009.9 |
| 20260506140315 | 20 | 197 | 6.4 | 11.3 | 0.00 | 0.00 | 0.00 | 69 | 1009.9 |
| 20260506140227 | 20 | 203 | 4.8 | 9.7 | 0.00 | 0.00 | 0.00 | 70 | 1010.0 |
| 20260506140142 | 20 | 207 | 9.7 | 11.3 | 0.00 | 0.00 | 0.00 | 68 | 1010.1 |
| 20260506140017 | 20 | 195 | 6.4 | 9.7 | 0.00 | 0.00 | 0.00 | 69 | 1009.9 |
| 20260506135928 | 20 | 195 | 6.4 | 12.9 | 0.00 | 0.00 | 0.00 | 69 | 1009.8 |
| 20260506135843 | 20 | 207 | 6.4 | 9.7 | 0.00 | 0.00 | 0.00 | 69 | 1010.0 |
| 20260506135738 | 20 | 197 | 8.0 | 11.3 | 0.00 | 0.00 | 0.00 | 69 | 1009.8 |
| 20260506135648 | 20 | 213 | 6.4 | 11.3 | 0.00 | 0.00 | 0.00 | 68 | 1009.8 |
| 20260506135524 | 20 | 208 | 9.7 | 16.1 | 0.00 | 0.00 | 0.00 | 68 | 1010.0 |
| 20260506135419 | 20 | 226 | 6.4 | 11.3 | 0.00 | 0.00 | 0.00 | 69 | 1009.9 |
| 20260506135350 | 20 | 194 | 6.4 | 9.7 | 0.00 | 0.00 | 0.00 | 69 | 1009.8 |
| 20260506135226 | 20 | 206 | 4.8 | 8.0 | 0.00 | 0.00 | 0.00 | 69 | 1009.8 |
| 20260506135141 | 20 | 206 | 6.4 | 11.3 | 0.00 | 0.00 | 0.00 | 69 | 1009.8 |
| 20260506135016 | 20 | 192 | 6.4 | 11.3 | 0.00 | 0.00 | 0.00 | 69 | 1009.9 |
| 20260506134927 | 20 | 209 | 8.0 | 9.7 | 0.00 | 0.00 | 0.00 | 69 | 1009.9 |
| 20260506134822 | 20 | 222 | 8.0 | 11.3 | 0.00 | 0.00 | 0.00 | 68 | 1009.9 |
| 20260506134717 | 20 | 202 | 6.4 | 9.7 | 0.00 | 0.00 | 0.00 | 68 | 1010.0 |
| 20260506134628 | 20 | 254 | 4.8 | 8.0 | 0.00 | 0.00 | 0.00 | 69 | 1009.9 |
| 20260506134546 | 20 | 216 | 4.8 | 6.4 | 0.00 | 0.00 | 0.00 | 69 | 1010.0 |
| 20260506134416 | 20 | 216 | 1.6 | 4.8 | 0.00 | 0.00 | 0.00 | 70 | 1010.2 |
| 20260506134327 | 20 | 202 | 1.6 | 6.4 | 0.00 | 0.00 | 0.00 | 70 | 1009.9 |
| 20260506134222 | 20 | 199 | 6.4 | 9.7 | 0.00 | 0.00 | 0.00 | 69 | 1010.0 |
| 20260506134137 | 20 | 229 | 4.8 | 8.0 | 0.00 | 0.00 | 0.00 | 68 | 1009.9 |
| 20260506134049 | 20 | 253 | 3.2 | 9.7 | 0.00 | 0.00 | 0.00 | 68 | 1010.1 |
| 20260506133924 | 20 | 250 | 4.8 | 9.7 | 0.00 | 0.00 | 0.00 | 69 | 1010.2 |
| 20260506133838 | 20 | 253 | 4.8 | 14.5 | 0.00 | 0.00 | 0.00 | 69 | 1010.1 |
| 20260506133729 | 20 | 221 | 8.0 | 14.5 | 0.00 | 0.00 | 0.00 | 70 | 1010.1 |
| 20260506133624 | 20 | 189 | 6.4 | 11.3 | 0.00 | 0.00 | 0.00 | 70 | 1010.1 |
| 20260506133551 | 20 | 229 | 8.0 | 12.9 | 0.00 | 0.00 | 0.00 | 69 | 1010.0 |
| 20260506133430 | 20 | 210 | 9.7 | 16.1 | 0.00 | 0.00 | 0.00 | 69 | 1010.0 |
| 20260506133325 | 20 | 204 | 8.0 | 16.1 | 0.00 | 0.00 | 0.00 | 70 | 1010.2 |
| 20260506133221 | 20 | 202 | 11.3 | 14.5 | 0.00 | 0.00 | 0.00 | 70 | 1010.2 |
| 20260506133116 | 20 | 211 | 4.8 | 9.7 | 0.00 | 0.00 | 0.00 | 70 | 1010.1 |
| 20260506133048 | 20 | 195 | 8.0 | 14.5 | 0.00 | 0.00 | 0.00 | 70 | 1010.1 |
| 20260506132923 | 20 | 202 | 4.8 | 11.3 | 0.00 | 0.00 | 0.00 | 69 | 1010.2 |
| 20260506132817 | 20 | 293 | 3.2 | 8.0 | 0.00 | 0.00 | 0.00 | 69 | 1010.1 |
| 20260506132729 | 20 | 223 | 9.7 | 16.1 | 0.00 | 0.00 | 0.00 | 69 | 1010.2 |
| 20260506132624 | 20 | 256 | 3.2 | 8.0 | 0.00 | 0.00 | 0.00 | 69 | 1010.0 |
| 20260506132519 | 20 | 284 | 3.2 | 6.4 | 0.00 | 0.00 | 0.00 | 70 | 1010.1 |
| 20260506132430 | 20 | 203 | 8.0 | 12.9 | 0.00 | 0.00 | 0.00 | 69 | 1010.1 |
| 20260506132326 | 20 | 211 | 6.4 | 12.9 | 0.00 | 0.00 | 0.00 | 69 | 1010.1 |
| 20260506132241 | 20 | 190 | 8.0 | 11.3 | 0.00 | 0.00 | 0.00 | 69 | 1010.1 |
| 20260506132137 | 20 | 197 | 6.4 | 16.1 | 0.00 | 0.00 | 0.00 | 70 | 1010.0 |
| 20260506132048 | 20 | 231 | 8.0 | 14.5 | 0.00 | 0.00 | 0.00 | 70 | 1009.9 |
| 20260506131924 | 20 | 195 | 9.7 | 17.7 | 0.00 | 0.00 | 0.00 | 69 | 1010.1 |
| 20260506131819 | 20 | 194 | 6.4 | 11.3 | 0.00 | 0.00 | 0.00 | 70 | 1010.0 |
| 20260506131731 | 20 | 210 | 8.0 | 11.3 | 0.00 | 0.00 | 0.00 | 70 | 1010.1 |
| 20260506131626 | 20 | 197 | 8.0 | 9.7 | 0.00 | 0.00 | 0.00 | 70 | 1010.2 |
| 20260506131542 | 20 | 209 | 8.0 | 14.5 | 0.00 | 0.00 | 0.00 | 70 | 1010.0 |
| 20260506131418 | 20 | 185 | 8.0 | 17.7 | 0.00 | 0.00 | 0.00 | 69 | 1010.2 |
| 20260506131329 | 20 | 250 | 1.6 | 4.8 | 0.00 | 0.00 | 0.00 | 70 | 1010.0 |
| 20260506131244 | 20 | 245 | 4.8 | 8.0 | 0.00 | 0.00 | 0.00 | 69 | 1010.0 |
| 20260506131119 | 20 | 221 | 8.0 | 11.3 | 0.00 | 0.00 | 0.00 | 70 | 1010.1 |
| 20260506131031 | 20 | 210 | 8.0 | 11.3 | 0.00 | 0.00 | 0.00 | 70 | 1010.1 |
| 20260506130926 | 20 | 194 | 4.8 | 16.1 | 0.00 | 0.00 | 0.00 | 70 | 1010.0 |
| 20260506130841 | 20 | 197 | 8.0 | 9.7 | 0.00 | 0.00 | 0.00 | 70 | 1010.0 |
| 20260506130716 | 20 | 220 | 9.7 | 14.5 | 0.00 | 0.00 | 0.00 | 70 | 1010.1 |
| 20260506130628 | 20 | 205 | 8.0 | 9.7 | 0.00 | 0.00 | 0.00 | 70 | 1010.2 |
| 20260506130522 | 20 | 267 | 3.2 | 9.7 | 0.00 | 0.00 | 0.00 | 70 | 1010.0 |
| 20260506130417 | 20 | 251 | 6.4 | 9.7 | 0.00 | 0.00 | 0.00 | 69 | 1010.1 |
| 20260506130329 | 20 | 206 | 9.7 | 17.7 | 0.00 | 0.00 | 0.00 | 70 | 1009.9 |
| 20260506130224 | 20 | 200 | 9.7 | 17.7 | 0.00 | 0.00 | 0.00 | 70 | 1009.9 |
| 20260506130120 | 20 | 218 | 6.4 | 9.7 | 0.00 | 0.00 | 0.00 | 70 | 1010.0 |
| 20260506130031 | 20 | 197 | 8.0 | 14.5 | 0.00 | 0.00 | 0.00 | 70 | 1009.9 |
| 20260506125926 | 20 | 209 | 6.4 | 11.3 | 0.00 | 0.00 | 0.00 | 70 | 1010.0 |
| 20260506125821 | 20 | 208 | 4.8 | 9.7 | 0.00 | 0.00 | 0.00 | 70 | 1009.9 |
| 20260506125737 | 20 | 207 | 8.0 | 11.3 | 0.00 | 0.00 | 0.00 | 70 | 1009.8 |
| 20260506125628 | 20 | 205 | 6.4 | 9.7 | 0.00 | 0.00 | 0.00 | 71 | 1010.0 |
| 20260506125523 | 20 | 207 | 4.8 | 12.9 | 0.00 | 0.00 | 0.00 | 71 | 1009.9 |
| 20260506125419 | 20 | 208 | 6.4 | 14.5 | 0.00 | 0.00 | 0.00 | 70 | 1009.8 |
| 20260506125346 | 20 | 209 | 8.0 | 14.5 | 0.00 | 0.00 | 0.00 | 70 | 1009.8 |
| 20260506125121 | 20 | 213 | 8.0 | 11.3 | 0.00 | 0.00 | 0.00 | 70 | 1009.7 |
| 20260506125017 | 20 | 209 | 8.0 | 14.5 | 0.00 | 0.00 | 0.00 | 71 | 1009.9 |
| 20260506124928 | 20 | 206 | 8.0 | 12.9 | 0.00 | 0.00 | 0.00 | 71 | 1009.8 |
| 20260506124824 | 20 | 204 | 8.0 | 14.5 | 0.00 | 0.00 | 0.00 | 71 | 1009.8 |
| 20260506124719 | 20 | 192 | 6.4 | 11.3 | 0.00 | 0.00 | 0.00 | 71 | 1009.8 |
| 20260506124631 | 20 | 199 | 4.8 | 8.0 | 0.00 | 0.00 | 0.00 | 71 | 1009.9 |
| 20260506124527 | 20 | 200 | 6.4 | 11.3 | 0.00 | 0.00 | 0.00 | 70 | 1009.8 |
| 20260506124422 | 20 | 201 | 6.4 | 12.9 | 0.00 | 0.00 | 0.00 | 71 | 1009.9 |
| 20260506124337 | 20 | 204 | 11.3 | 17.7 | 0.00 | 0.00 | 0.00 | 71 | 1009.8 |
| 20260506124249 | 20 | 218 | 8.0 | 14.5 | 0.00 | 0.00 | 0.00 | 71 | 1009.8 |
| 20260506124123 | 20 | 195 | 9.7 | 17.7 | 0.00 | 0.00 | 0.00 | 70 | 1009.9 |
| 20260506124018 | 20 | 218 | 6.4 | 14.5 | 0.00 | 0.00 | 0.00 | 71 | 1009.9 |
| 20260506123949 | 20 | 199 | 6.4 | 11.3 | 0.00 | 0.00 | 0.00 | 71 | 1009.7 |
| 20260506123823 | 20 | 208 | 8.0 | 14.5 | 0.00 | 0.00 | 0.00 | 71 | 1009.9 |
| 20260506123738 | 20 | 199 | 4.8 | 6.4 | 0.00 | 0.00 | 0.00 | 71 | 1009.9 |
| 20260506123630 | 20 | 204 | 4.8 | 11.3 | 0.00 | 0.00 | 0.00 | 71 | 1010.0 |
| 20260506123526 | 20 | 222 | 9.7 | 16.1 | 0.00 | 0.00 | 0.00 | 72 | 1009.7 |
| 20260506123441 | 20 | 194 | 4.8 | 9.7 | 0.00 | 0.00 | 0.00 | 72 | 1009.9 |
| 20260506123317 | 20 | 196 | 8.0 | 11.3 | 0.00 | 0.00 | 0.00 | 71 | 1009.8 |
| 20260506123229 | 20 | 209 | 8.0 | 12.9 | 0.00 | 0.00 | 0.00 | 71 | 1010.1 |
| 20260506123144 | 20 | 209 | 4.8 | 11.3 | 0.00 | 0.00 | 0.00 | 72 | 1009.6 |
| 20260506123020 | 20 | 203 | 4.8 | 12.9 | 0.00 | 0.00 | 0.00 | 73 | 1010.1 |
| 20260506122935 | 19 | 199 | 6.4 | 8.0 | 0.00 | 0.00 | 0.00 | 72 | 1009.9 |
| 20260506122846 | 19 | 200 | 4.8 | 9.7 | 0.00 | 0.00 | 0.00 | 72 | 1009.6 |
| 20260506122722 | 19 | 212 | 4.8 | 8.0 | 0.00 | 0.00 | 0.00 | 72 | 1009.8 |
| 20260506122617 | 19 | 208 | 6.4 | 9.7 | 0.00 | 0.00 | 0.00 | 73 | 1010.0 |
| 20260506122529 | 19 | 207 | 3.2 | 4.8 | 0.00 | 0.00 | 0.00 | 73 | 1010.2 |
| 20260506122424 | 19 | 233 | 8.0 | 12.9 | 0.00 | 0.00 | 0.00 | 73 | 1010.2 |
| 20260506122320 | 19 | 203 | 6.4 | 9.7 | 0.00 | 0.00 | 0.00 | 74 | 1009.9 |
| 20260506122236 | 19 | 200 | 8.0 | 9.7 | 0.00 | 0.00 | 0.00 | 74 | 1010.0 |
| 20260506122127 | 18 | 209 | 4.8 | 11.3 | 0.00 | 0.00 | 0.00 | 74 | 1010.0 |
| 20260506122022 | 18 | 198 | 8.0 | 14.5 | 0.00 | 0.00 | 0.00 | 74 | 1009.9 |
| 20260506121918 | 18 | 265 | 3.2 | 4.8 | 0.00 | 0.00 | 0.00 | 75 | 1010.0 |
| 20260506121829 | 18 | 195 | 4.8 | 6.4 | 0.00 | 0.00 | 0.00 | 75 | 1009.9 |
| 20260506121725 | 18 | 201 | 3.2 | 6.4 | 0.00 | 0.00 | 0.00 | 75 | 1010.2 |
| 20260506121620 | 18 | 220 | 0.0 | 3.2 | 0.00 | 0.00 | 0.00 | 75 | 1010.2 |
| 20260506121556 | 18 | 244 | 4.8 | 6.4 | 0.00 | 0.00 | 0.00 | 75 | 1010.2 |
| 20260506121428 | 18 | 235 | 3.2 | 8.0 | 0.00 | 0.00 | 0.00 | 75 | 1010.2 |
| 20260506121323 | 18 | 210 | 3.2 | 8.0 | 0.00 | 0.00 | 0.00 | 75 | 1010.2 |
| 20260506121219 | 18 | 205 | 4.8 | 6.4 | 0.00 | 0.00 | 0.00 | 75 | 1010.1 |
| 20260506121130 | 18 | 217 | 4.8 | 6.4 | 0.00 | 0.00 | 0.00 | 75 | 1010.1 |
| 20260506121025 | 18 | 183 | 4.8 | 6.4 | 0.00 | 0.00 | 0.00 | 75 | 1010.2 |
| 20260506120921 | 18 | 225 | 3.2 | 4.8 | 0.00 | 0.00 | 0.00 | 75 | 1010.1 |
| 20260506120817 | 18 | 203 | 4.8 | 8.0 | 0.00 | 0.00 | 0.00 | 75 | 1010.0 |
| 20260506120728 | 18 | 184 | 4.8 | 6.4 | 0.00 | 0.00 | 0.00 | 75 | 1010.1 |
| 20260506120624 | 18 | 234 | 3.2 | 4.8 | 0.00 | 0.00 | 0.00 | 75 | 1010.2 |
| 20260506120519 | 18 | 200 | 6.4 | 9.7 | 0.00 | 0.00 | 0.00 | 75 | 1010.0 |
| 20260506120431 | 18 | 205 | 4.8 | 9.7 | 0.00 | 0.00 | 0.00 | 75 | 1009.9 |
| 20260506120326 | 18 | 193 | 6.4 | 6.4 | 0.00 | 0.00 | 0.00 | 75 | 1010.2 |
| 20260506120222 | 18 | 205 | 4.8 | 8.0 | 0.00 | 0.00 | 0.00 | 75 | 1010.2 |
| 20260506120138 | 18 | 205 | 8.0 | 9.7 | 0.00 | 0.00 | 0.00 | 75 | 1010.2 |
| 20260506120029 | 18 | 197 | 6.4 | 9.7 | 0.00 | 0.00 | 0.00 | 75 | 1010.1 |
| 20260506115925 | 18 | 209 | 6.4 | 9.7 | 0.00 | 0.00 | 0.00 | 75 | 1010.1 |
| 20260506115820 | 18 | 188 | 6.4 | 11.3 | 0.00 | 0.00 | 0.00 | 75 | 1010.2 |
| 20260506115716 | 18 | 204 | 4.8 | 8.0 | 0.00 | 0.00 | 0.00 | 75 | 1010.4 |
| 20260506115640 | 18 | 213 | 4.8 | 6.4 | 0.00 | 0.00 | 0.00 | 75 | 1010.3 |
| 20260506115523 | 18 | 235 | 3.2 | 4.8 | 0.00 | 0.00 | 0.00 | 75 | 1010.4 |
| 20260506115418 | 18 | 165 | 3.2 | 9.7 | 0.00 | 0.00 | 0.00 | 75 | 1010.4 |
| 20260506115330 | 18 | 229 | 6.4 | 12.9 | 0.00 | 0.00 | 0.00 | 75 | 1010.5 |
| 20260506115225 | 18 | 207 | 4.8 | 8.0 | 0.00 | 0.00 | 0.00 | 75 | 1010.3 |
| 20260506115121 | 18 | 211 | 9.7 | 16.1 | 0.00 | 0.00 | 0.00 | 75 | 1010.3 |
| 20260506115017 | 18 | 202 | 8.0 | 16.1 | 0.00 | 0.00 | 0.00 | 75 | 1010.4 |
| 20260506114928 | 18 | 199 | 9.7 | 12.9 | 0.00 | 0.00 | 0.00 | 75 | 1010.3 |
| 20260506114824 | 18 | 198 | 9.7 | 12.9 | 0.00 | 0.00 | 0.00 | 75 | 1010.4 |
| 20260506114739 | 18 | 208 | 6.4 | 9.7 | 0.00 | 0.00 | 0.00 | 75 | 1010.3 |
| 20260506114615 | 18 | 204 | 6.4 | 12.9 | 0.00 | 0.00 | 0.00 | 75 | 1010.3 |
| 20260506114527 | 18 | 193 | 8.0 | 16.1 | 0.00 | 0.00 | 0.00 | 75 | 1010.2 |
| 20260506114502 | 18 | 204 | 9.7 | 17.7 | 0.00 | 0.00 | 0.00 | 74 | 1010.2 |
| 20260506114317 | 18 | 207 | 12.9 | 22.5 | 0.00 | 0.00 | 0.00 | 75 | 1010.3 |
| 20260506114229 | 18 | 226 | 4.8 | 11.3 | 0.00 | 0.00 | 0.00 | 75 | 1010.2 |
| 20260506114125 | 18 | 209 | 8.0 | 16.1 | 0.00 | 0.00 | 0.00 | 75 | 1010.4 |
| 20260506114020 | 18 | 206 | 11.3 | 17.7 | 0.00 | 0.00 | 0.00 | 75 | 1010.2 |
| 20260506113916 | 18 | 208 | 11.3 | 17.7 | 0.00 | 0.00 | 0.00 | 76 | 1010.2 |
| 20260506113827 | 18 | 206 | 3.2 | 9.7 | 0.00 | 0.00 | 0.00 | 76 | 1010.1 |
| 20260506113723 | 18 | 198 | 6.4 | 14.5 | 0.00 | 0.00 | 0.00 | 76 | 1010.2 |
| 20260506113619 | 18 | 203 | 6.4 | 16.1 | 0.00 | 0.00 | 0.00 | 76 | 1010.3 |
| 20260506113530 | 18 | 200 | 4.8 | 8.0 | 0.00 | 0.00 | 0.00 | 76 | 1010.2 |
| 20260506113426 | 18 | 231 | 4.8 | 6.4 | 0.00 | 0.00 | 0.00 | 76 | 1010.2 |
| 20260506113322 | 18 | 210 | 4.8 | 8.0 | 0.00 | 0.00 | 0.00 | 77 | 1010.3 |
| 20260506113217 | 18 | 210 | 6.4 | 9.7 | 0.00 | 0.00 | 0.00 | 77 | 1010.5 |
| 20260506113149 | 18 | 215 | 6.4 | 9.7 | 0.00 | 0.00 | 0.00 | 77 | 1010.5 |
| 20260506113044 | 18 | 206 | 11.3 | 17.7 | 0.00 | 0.00 | 0.00 | 77 | 1010.3 |
| 20260506112920 | 18 | 215 | 9.7 | 16.1 | 0.00 | 0.00 | 0.00 | 77 | 1010.2 |
| 20260506112816 | 18 | 205 | 11.3 | 17.7 | 0.00 | 0.00 | 0.00 | 77 | 1010.3 |
| 20260506112727 | 18 | 200 | 8.0 | 14.5 | 0.00 | 0.00 | 0.00 | 77 | 1010.2 |
| 20260506112623 | 18 | 202 | 6.4 | 9.7 | 0.00 | 0.00 | 0.00 | 77 | 1010.3 |
| 20260506112518 | 18 | 202 | 11.3 | 19.3 | 0.00 | 0.00 | 0.00 | 77 | 1010.2 |
| 20260506112430 | 18 | 203 | 4.8 | 8.0 | 0.00 | 0.00 | 0.00 | 77 | 1010.4 |
| 20260506112326 | 18 | 235 | 8.0 | 14.5 | 0.00 | 0.00 | 0.00 | 77 | 1010.5 |
| 20260506112221 | 18 | 271 | 6.4 | 12.9 | 0.00 | 0.00 | 0.00 | 77 | 1010.4 |
| 20260506112117 | 18 | 196 | 4.8 | 8.0 | 0.00 | 0.00 | 0.00 | 78 | 1010.6 |
| 20260506112029 | 18 | 209 | 6.4 | 11.3 | 0.00 | 0.00 | 0.00 | 78 | 1010.4 |
| 20260506111924 | 18 | 198 | 4.8 | 8.0 | 0.00 | 0.00 | 0.00 | 78 | 1010.5 |
| 20260506111820 | 18 | 208 | 8.0 | 11.3 | 0.00 | 0.00 | 0.00 | 78 | 1010.5 |
| 20260506111731 | 18 | 199 | 8.0 | 12.9 | 0.00 | 0.00 | 0.00 | 78 | 1010.4 |
| 20260506111627 | 18 | 192 | 6.4 | 9.7 | 0.00 | 0.00 | 0.00 | 78 | 1010.2 |
| 20260506111522 | 18 | 201 | 4.8 | 9.7 | 0.00 | 0.00 | 0.00 | 78 | 1010.4 |
| 20260506111437 | 18 | 203 | 6.4 | 11.3 | 0.00 | 0.00 | 0.00 | 78 | 1010.4 |
| 20260506111329 | 18 | 203 | 8.0 | 12.9 | 0.00 | 0.00 | 0.00 | 78 | 1010.5 |
| 20260506111225 | 18 | 206 | 9.7 | 16.1 | 0.00 | 0.00 | 0.00 | 78 | 1010.5 |
| 20260506111121 | 18 | 203 | 4.8 | 8.0 | 0.00 | 0.00 | 0.00 | 78 | 1010.3 |
| 20260506111016 | 18 | 193 | 4.8 | 6.4 | 0.00 | 0.00 | 0.00 | 78 | 1010.4 |
| 20260506110928 | 18 | 202 | 1.6 | 4.8 | 0.00 | 0.00 | 0.00 | 78 | 1010.3 |
| 20260506110823 | 18 | 240 | 4.8 | 8.0 | 0.00 | 0.00 | 0.00 | 78 | 1010.5 |
| 20260506110719 | 18 | 201 | 6.4 | 12.9 | 0.00 | 0.00 | 0.00 | 78 | 1010.2 |
| 20260506110630 | 18 | 209 | 6.4 | 11.3 | 0.00 | 0.00 | 0.00 | 79 | 1010.4 |
| 20260506110526 | 17 | 184 | 4.8 | 8.0 | 0.00 | 0.00 | 0.00 | 78 | 1010.2 |
| 20260506110421 | 17 | 196 | 4.8 | 6.4 | 0.00 | 0.00 | 0.00 | 79 | 1010.1 |
| 20260506110317 | 17 | 196 | 4.8 | 6.4 | 0.00 | 0.00 | 0.00 | 79 | 1010.3 |
| 20260506110249 | 17 | 195 | 9.7 | 17.7 | 0.00 | 0.00 | 0.00 | 78 | 1010.2 |
| 20260506110144 | 17 | 196 | 6.4 | 16.1 | 0.00 | 0.00 | 0.00 | 79 | 1010.2 |
| 20260506110040 | 17 | 212 | 9.7 | 14.5 | 0.00 | 0.00 | 0.00 | 79 | 1010.4 |
| 20260506105915 | 17 | 205 | 6.4 | 8.0 | 0.00 | 0.00 | 0.00 | 79 | 1010.3 |
| 20260506105827 | 17 | 202 | 9.7 | 19.3 | 0.00 | 0.00 | 0.00 | 79 | 1010.4 |
| 20260506105743 | 17 | 199 | 6.4 | 9.7 | 0.00 | 0.00 | 0.00 | 80 | 1010.3 |
| 20260506105618 | 17 | 212 | 6.4 | 9.7 | 0.00 | 0.00 | 0.00 | 80 | 1010.3 |
| 20260506105530 | 17 | 211 | 4.8 | 6.4 | 0.00 | 0.00 | 0.00 | 80 | 1010.2 |
| 20260506105425 | 17 | 187 | 4.8 | 6.4 | 0.00 | 0.00 | 0.00 | 80 | 1010.2 |
| 20260506105321 | 17 | 196 | 4.8 | 6.4 | 0.00 | 0.00 | 0.00 | 80 | 1010.2 |
| 20260506105216 | 17 | 202 | 4.8 | 6.4 | 0.00 | 0.00 | 0.00 | 80 | 1010.2 |
| 20260506105128 | 17 | 211 | 4.8 | 8.0 | 0.00 | 0.00 | 0.00 | 80 | 1010.1 |
| 20260506105024 | 17 | 213 | 6.4 | 9.7 | 0.00 | 0.00 | 0.00 | 80 | 1010.0 |
| 20260506104919 | 17 | 180 | 4.8 | 17.7 | 0.00 | 0.00 | 0.00 | 80 | 1010.1 |
| 20260506104831 | 17 | 211 | 4.8 | 6.4 | 0.00 | 0.00 | 0.00 | 80 | 1010.1 |
| 20260506104726 | 17 | 201 | 6.4 | 9.7 | 0.00 | 0.00 | 0.00 | 80 | 1010.1 |
| 20260506104622 | 17 | 198 | 4.8 | 8.0 | 0.00 | 0.00 | 0.00 | 80 | 1010.2 |
| 20260506104537 | 17 | 202 | 4.8 | 4.8 | 0.00 | 0.00 | 0.00 | 80 | 1010.1 |
| 20260506104429 | 17 | 202 | 3.2 | 4.8 | 0.00 | 0.00 | 0.00 | 80 | 1010.2 |
| 20260506104325 | 17 | 205 | 6.4 | 9.7 | 0.00 | 0.00 | 0.00 | 80 | 1010.0 |
| 20260506104221 | 17 | 203 | 4.8 | 6.4 | 0.00 | 0.00 | 0.00 | 80 | 1010.0 |
| 20260506104156 | 17 | 161 | 1.6 | 3.2 | 0.00 | 0.00 | 0.00 | 80 | 1010.1 |
| 20260506104028 | 17 | 197 | 3.2 | 8.0 | 0.00 | 0.00 | 0.00 | 80 | 1010.1 |
| 20260506103923 | 17 | 201 | 6.4 | 8.0 | 0.00 | 0.00 | 0.00 | 80 | 1010.0 |
| 20260506103819 | 17 | 199 | 4.8 | 8.0 | 0.00 | 0.00 | 0.00 | 80 | 1010.2 |
| 20260506103731 | 17 | 201 | 4.8 | 6.4 | 0.00 | 0.00 | 0.00 | 80 | 1010.1 |
| 20260506103626 | 17 | 205 | 6.4 | 11.3 | 0.00 | 0.00 | 0.00 | 80 | 1010.1 |
| 20260506103522 | 17 | 206 | 4.8 | 8.0 | 0.00 | 0.00 | 0.00 | 80 | 1010.2 |
| 20260506103418 | 17 | 196 | 4.8 | 6.4 | 0.00 | 0.00 | 0.00 | 80 | 1010.2 |
| 20260506103329 | 17 | 219 | 4.8 | 8.0 | 0.00 | 0.00 | 0.00 | 80 | 1010.1 |
| 20260506103225 | 17 | 214 | 4.8 | 9.7 | 0.00 | 0.00 | 0.00 | 80 | 1010.2 |
| 20260506103120 | 17 | 204 | 8.0 | 9.7 | 0.00 | 0.00 | 0.00 | 80 | 1010.2 |
| 20260506103036 | 17 | 197 | 6.4 | 8.0 | 0.00 | 0.00 | 0.00 | 80 | 1010.1 |
| 20260506102928 | 17 | 197 | 6.4 | 9.7 | 0.00 | 0.00 | 0.00 | 80 | 1010.2 |
| 20260506102843 | 17 | 198 | 4.8 | 6.4 | 0.00 | 0.00 | 0.00 | 80 | 1010.4 |
| 20260506102719 | 17 | 181 | 3.2 | 4.8 | 0.00 | 0.00 | 0.00 | 80 | 1010.1 |
| 20260506102631 | 17 | 159 | 1.6 | 4.8 | 0.00 | 0.00 | 0.00 | 80 | 1010.1 |
| 20260506102526 | 17 | 194 | 3.2 | 4.8 | 0.00 | 0.00 | 0.00 | 80 | 1010.2 |
| 20260506102422 | 17 | 206 | 4.8 | 6.4 | 0.00 | 0.00 | 0.00 | 80 | 1010.3 |
| 20260506102317 | 17 | 214 | 6.4 | 14.5 | 0.00 | 0.00 | 0.00 | 80 | 1010.3 |
| 20260506102229 | 17 | 207 | 8.0 | 14.5 | 0.00 | 0.00 | 0.00 | 80 | 1010.0 |
| 20260506102125 | 17 | 213 | 3.2 | 9.7 | 0.00 | 0.00 | 0.00 | 80 | 1010.3 |
| 20260506102020 | 17 | 204 | 4.8 | 8.0 | 0.00 | 0.00 | 0.00 | 80 | 1010.0 |
| 20260506101916 | 17 | 237 | 3.2 | 4.8 | 0.00 | 0.00 | 0.00 | 80 | 1010.1 |
| 20260506101848 | 17 | 197 | 4.8 | 8.0 | 0.00 | 0.00 | 0.00 | 80 | 1010.2 |
| 20260506101723 | 17 | 200 | 8.0 | 9.7 | 0.00 | 0.00 | 0.00 | 80 | 1010.0 |
| 20260506101619 | 17 | 202 | 6.4 | 8.0 | 0.00 | 0.00 | 0.00 | 80 | 1010.2 |
| 20260506101531 | 17 | 198 | 4.8 | 6.4 | 0.00 | 0.00 | 0.00 | 80 | 1010.1 |
| 20260506101426 | 17 | 196 | 8.0 | 14.5 | 0.00 | 0.00 | 0.00 | 80 | 1010.1 |
| 20260506101321 | 17 | 208 | 8.0 | 12.9 | 0.00 | 0.00 | 0.00 | 80 | 1010.1 |
| 20260506101309 | 17 | 204 | 8.0 | 9.7 | 0.00 | 0.00 | 0.00 | 81 | 1010.0 |
| 20260506101025 | 17 | 194 | 4.8 | 6.4 | 0.00 | 0.00 | 0.00 | 81 | 1010.1 |
| 20260506100920 | 17 | 190 | 4.8 | 6.4 | 0.00 | 0.00 | 0.00 | 81 | 1010.0 |
| 20260506100836 | 17 | 194 | 4.8 | 9.7 | 0.00 | 0.00 | 0.00 | 80 | 1010.0 |
| 20260506100727 | 17 | 206 | 6.4 | 9.7 | 0.00 | 0.00 | 0.00 | 80 | 1009.8 |
| 20260506100623 | 17 | 201 | 3.2 | 6.4 | 0.00 | 0.00 | 0.00 | 80 | 1009.8 |
| 20260506100519 | 17 | 240 | 4.8 | 8.0 | 0.00 | 0.00 | 0.00 | 80 | 1010.0 |
| 20260506100430 | 17 | 205 | 6.4 | 8.0 | 0.00 | 0.00 | 0.00 | 81 | 1009.9 |
| 20260506100326 | 17 | 206 | 4.8 | 6.4 | 0.00 | 0.00 | 0.00 | 81 | 1009.9 |
| 20260506100221 | 17 | 189 | 1.6 | 4.8 | 0.00 | 0.00 | 0.00 | 81 | 1010.0 |
| 20260506100117 | 17 | 200 | 4.8 | 9.7 | 0.00 | 0.00 | 0.00 | 81 | 1009.9 |
| 20260506100029 | 17 | 201 | 4.8 | 8.0 | 0.00 | 0.00 | 0.00 | 81 | 1009.9 |
| 20260506095924 | 17 | 200 | 3.2 | 6.4 | 0.00 | 0.00 | 0.00 | 81 | 1009.7 |
| 20260506095840 | 17 | 199 | 4.8 | 8.0 | 0.00 | 0.00 | 0.00 | 81 | 1009.8 |
| 20260506095715 | 17 | 196 | 4.8 | 8.0 | 0.00 | 0.00 | 0.00 | 81 | 1009.9 |
| 20260506095627 | 17 | 190 | 4.8 | 6.4 | 0.00 | 0.00 | 0.00 | 81 | 1009.7 |
| 20260506095523 | 17 | 198 | 6.4 | 8.0 | 0.00 | 0.00 | 0.00 | 81 | 1009.8 |
| 20260506095418 | 17 | 190 | 4.8 | 8.0 | 0.00 | 0.00 | 0.00 | 81 | 1010.0 |
| 20260506095330 | 17 | 203 | 4.8 | 6.4 | 0.00 | 0.00 | 0.00 | 80 | 1009.9 |
| 20260506095225 | 17 | 209 | 3.2 | 6.4 | 0.00 | 0.00 | 0.00 | 80 | 1010.0 |
| 20260506095121 | 17 | 209 | 6.4 | 9.7 | 0.00 | 0.00 | 0.00 | 80 | 1009.8 |
| 20260506095017 | 17 | 201 | 6.4 | 8.0 | 0.00 | 0.00 | 0.00 | 80 | 1009.9 |
| 20260506094948 | 17 | 203 | 6.4 | 9.7 | 0.00 | 0.00 | 0.00 | 80 | 1009.7 |
| 20260506094844 | 17 | 194 | 4.8 | 8.0 | 0.00 | 0.00 | 0.00 | 80 | 1010.0 |
| 20260506094720 | 17 | 201 | 6.4 | 9.7 | 0.00 | 0.00 | 0.00 | 80 | 1010.0 |
| 20260506094615 | 17 | 194 | 4.8 | 8.0 | 0.00 | 0.00 | 0.00 | 80 | 1010.0 |
| 20260506094527 | 17 | 199 | 9.7 | 12.9 | 0.00 | 0.00 | 0.00 | 80 | 1009.9 |
| 20260506094422 | 17 | 187 | 4.8 | 6.4 | 0.00 | 0.00 | 0.00 | 80 | 1010.0 |
| 20260506094318 | 17 | 190 | 4.8 | 6.4 | 0.00 | 0.00 | 0.00 | 80 | 1010.0 |
| 20260506094230 | 17 | 204 | 6.4 | 11.3 | 0.00 | 0.00 | 0.00 | 80 | 1010.0 |
| 20260506094125 | 17 | 200 | 8.0 | 12.9 | 0.00 | 0.00 | 0.00 | 80 | 1009.9 |
| 20260506094041 | 17 | 195 | 6.4 | 11.3 | 0.00 | 0.00 | 0.00 | 80 | 1009.9 |
| 20260506093916 | 17 | 201 | 8.0 | 12.9 | 0.00 | 0.00 | 0.00 | 80 | 1009.8 |
| 20260506093828 | 17 | 213 | 8.0 | 11.3 | 0.00 | 0.00 | 0.00 | 80 | 1009.7 |
| 20260506093744 | 17 | 208 | 6.4 | 11.3 | 0.00 | 0.00 | 0.00 | 80 | 1009.5 |
| 20260506093639 | 17 | 225 | 4.8 | 9.7 | 0.00 | 0.00 | 0.00 | 80 | 1009.8 |
| 20260506093531 | 17 | 217 | 3.2 | 6.4 | 0.00 | 0.00 | 0.00 | 80 | 1009.7 |
| 20260506093427 | 17 | 210 | 3.2 | 6.4 | 0.00 | 0.00 | 0.00 | 80 | 1009.9 |
| 20260506093322 | 17 | 200 | 6.4 | 12.9 | 0.00 | 0.00 | 0.00 | 81 | 1009.7 |
| 20260506093218 | 17 | 192 | 6.4 | 12.9 | 0.00 | 0.00 | 0.00 | 81 | 1009.9 |
| 20260506093129 | 17 | 217 | 3.2 | 8.0 | 0.00 | 0.00 | 0.00 | 81 | 1009.9 |
| 20260506093025 | 17 | 214 | 8.0 | 9.7 | 0.00 | 0.00 | 0.00 | 81 | 1009.9 |
| 20260506092920 | 17 | 210 | 6.4 | 9.7 | 0.00 | 0.00 | 0.00 | 81 | 1009.9 |
| 20260506092816 | 17 | 213 | 8.0 | 11.3 | 0.00 | 0.00 | 0.00 | 81 | 1010.0 |
| 20260506092728 | 17 | 214 | 4.8 | 8.0 | 0.00 | 0.00 | 0.00 | 81 | 1009.9 |
| 20260506092643 | 17 | 209 | 4.8 | 6.4 | 0.00 | 0.00 | 0.00 | 81 | 1009.9 |
| 20260506092519 | 17 | 206 | 4.8 | 6.4 | 0.00 | 0.00 | 0.00 | 81 | 1009.8 |
| 20260506092431 | 17 | 188 | 4.8 | 6.4 | 0.00 | 0.00 | 0.00 | 81 | 1009.8 |
| 20260506092326 | 17 | 200 | 3.2 | 6.4 | 0.00 | 0.00 | 0.00 | 81 | 1009.8 |
| 20260506092222 | 17 | 211 | 4.8 | 6.4 | 0.00 | 0.00 | 0.00 | 81 | 1010.0 |
| 20260506092138 | 17 | 217 | 4.8 | 8.0 | 0.00 | 0.00 | 0.00 | 81 | 1009.7 |
| 20260506092029 | 17 | 201 | 8.0 | 12.9 | 0.00 | 0.00 | 0.00 | 81 | 1009.8 |
| 20260506091925 | 17 | 154 | 4.8 | 6.4 | 0.00 | 0.00 | 0.00 | 81 | 1009.8 |
| 20260506091821 | 17 | 191 | 4.8 | 8.0 | 0.00 | 0.00 | 0.00 | 81 | 1010.0 |
| 20260506091716 | 17 | 207 | 4.8 | 8.0 | 0.00 | 0.00 | 0.00 | 81 | 1010.0 |
| 20260506091628 | 17 | 206 | 8.0 | 9.7 | 0.00 | 0.00 | 0.00 | 81 | 1009.9 |
| 20260506091523 | 17 | 216 | 3.2 | 6.4 | 0.00 | 0.00 | 0.00 | 81 | 1010.1 |
| 20260506091419 | 17 | 199 | 4.8 | 6.4 | 0.00 | 0.00 | 0.00 | 81 | 1009.9 |
| 20260506091331 | 17 | 195 | 6.4 | 8.0 | 0.00 | 0.00 | 0.00 | 81 | 1010.0 |
| 20260506091226 | 17 | 202 | 6.4 | 8.0 | 0.00 | 0.00 | 0.00 | 82 | 1010.0 |
| 20260506091122 | 17 | 186 | 4.8 | 4.8 | 0.00 | 0.00 | 0.00 | 82 | 1010.0 |
| 20260506091017 | 17 | 126 | 4.8 | 6.4 | 0.00 | 0.00 | 0.00 | 82 | 1010.1 |
| 20260506090929 | 17 | 232 | 1.6 | 4.8 | 0.00 | 0.00 | 0.00 | 82 | 1010.2 |
| 20260506090825 | 17 | 217 | 4.8 | 6.4 | 0.00 | 0.00 | 0.00 | 82 | 1009.9 |
| 20260506090740 | 17 | 203 | 4.8 | 6.4 | 0.00 | 0.00 | 0.00 | 81 | 1010.1 |
| 20260506090616 | 17 | 206 | 6.4 | 8.0 | 0.00 | 0.00 | 0.00 | 81 | 1010.3 |
| 20260506090527 | 17 | 200 | 6.4 | 8.0 | 0.00 | 0.00 | 0.00 | 82 | 1010.1 |
| 20260506090423 | 17 | 202 | 6.4 | 9.7 | 0.00 | 0.00 | 0.00 | 82 | 1009.9 |
| 20260506090319 | 17 | 201 | 6.4 | 8.0 | 0.00 | 0.00 | 0.00 | 82 | 1009.9 |
| 20260506090231 | 17 | 195 | 3.2 | 4.8 | 0.00 | 0.00 | 0.00 | 82 | 1010.0 |
| 20260506090126 | 17 | 211 | 1.6 | 4.8 | 0.00 | 0.00 | 0.00 | 82 | 1010.0 |
| 20260506090022 | 17 | 208 | 3.2 | 6.4 | 0.00 | 0.00 | 0.00 | 82 | 1009.9 |
| 20260506085918 | 17 | 209 | 4.8 | 6.4 | 0.00 | 0.00 | 0.00 | 82 | 1010.1 |
| 20260506085829 | 17 | 203 | 6.4 | 14.5 | 0.00 | 0.00 | 0.00 | 81 | 1010.1 |
| 20260506085725 | 17 | 200 | 8.0 | 14.5 | 0.00 | 0.00 | 0.00 | 82 | 1010.2 |
| 20260506085621 | 17 | 272 | 4.8 | 6.4 | 0.00 | 0.00 | 0.00 | 82 | 1010.1 |
| 20260506085516 | 17 | 200 | 6.4 | 12.9 | 0.00 | 0.00 | 0.00 | 82 | 1010.0 |
| 20260506085428 | 17 | 221 | 4.8 | 8.0 | 0.00 | 0.00 | 0.00 | 82 | 1010.1 |
| 20260506085324 | 17 | 202 | 4.8 | 8.0 | 0.00 | 0.00 | 0.00 | 82 | 1010.3 |
| 20260506085219 | 17 | 208 | 4.8 | 6.4 | 0.00 | 0.00 | 0.00 | 82 | 1010.0 |
| 20260506085130 | 17 | 198 | 4.8 | 6.4 | 0.00 | 0.00 | 0.00 | 82 | 1010.0 |
| 20260506085026 | 17 | 197 | 3.2 | 4.8 | 0.00 | 0.00 | 0.00 | 82 | 1010.1 |
| 20260506084922 | 17 | 188 | 4.8 | 6.4 | 0.00 | 0.00 | 0.00 | 82 | 1010.2 |
| 20260506084830 | 17 | 196 | 6.4 | 9.7 | 0.00 | 0.00 | 0.00 | 82 | 1010.2 |
| 20260506084625 | 17 | 193 | 6.4 | 8.0 | 0.00 | 0.00 | 0.00 | 82 | 1010.0 |
| 20260506084520 | 17 | 198 | 4.8 | 6.4 | 0.00 | 0.00 | 0.00 | 82 | 1010.2 |
| 20260506084416 | 17 | 210 | 6.4 | 9.7 | 0.00 | 0.00 | 0.00 | 82 | 1010.1 |
| 20260506084328 | 17 | 203 | 6.4 | 9.7 | 0.00 | 0.00 | 0.00 | 82 | 1010.4 |
| 20260506084223 | 17 | 202 | 6.4 | 9.7 | 0.00 | 0.00 | 0.00 | 82 | 1010.2 |
| 20260506084119 | 17 | 211 | 3.2 | 8.0 | 0.00 | 0.00 | 0.00 | 82 | 1010.2 |
| 20260506084031 | 17 | 205 | 4.8 | 8.0 | 0.00 | 0.00 | 0.00 | 82 | 1010.4 |
| 20260506083946 | 17 | 198 | 4.8 | 4.8 | 0.00 | 0.00 | 0.00 | 83 | 1010.4 |
| 20260506083822 | 17 | 173 | 3.2 | 6.4 | 0.00 | 0.00 | 0.00 | 82 | 1010.1 |
| 20260506083717 | 17 | 173 | 1.6 | 4.8 | 0.00 | 0.00 | 0.00 | 82 | 1010.3 |
| 20260506083629 | 17 | 188 | 4.8 | 6.4 | 0.00 | 0.00 | 0.00 | 82 | 1010.3 |
| 20260506083544 | 17 | 194 | 4.8 | 6.4 | 0.00 | 0.00 | 0.00 | 82 | 1010.3 |
| 20260506083420 | 17 | 200 | 6.4 | 6.4 | 0.00 | 0.00 | 0.00 | 82 | 1010.2 |
| 20260506083316 | 17 | 204 | 1.6 | 4.8 | 0.00 | 0.00 | 0.00 | 82 | 1010.1 |
| 20260506083227 | 17 | 207 | 4.8 | 6.4 | 0.00 | 0.00 | 0.00 | 82 | 1010.2 |
| 20260506083123 | 17 | 204 | 3.2 | 6.4 | 0.00 | 0.00 | 0.00 | 82 | 1010.4 |
| 20260506083019 | 17 | 202 | 4.8 | 6.4 | 0.00 | 0.00 | 0.00 | 82 | 1010.0 |
| 20260506082930 | 17 | 207 | 4.8 | 6.4 | 0.00 | 0.00 | 0.00 | 82 | 1010.2 |
| 20260506082826 | 17 | 195 | 4.8 | 6.4 | 0.00 | 0.00 | 0.00 | 82 | 1010.1 |
| 20260506082722 | 17 | 200 | 3.2 | 8.0 | 0.00 | 0.00 | 0.00 | 82 | 1010.1 |
| 20260506082617 | 17 | 199 | 6.4 | 8.0 | 0.00 | 0.00 | 0.00 | 82 | 1010.1 |
| 20260506082529 | 17 | 197 | 6.4 | 8.0 | 0.00 | 0.00 | 0.00 | 82 | 1010.2 |
| 20260506082425 | 17 | 198 | 4.8 | 6.4 | 0.00 | 0.00 | 0.00 | 82 | 1010.0 |
| 20260506082340 | 17 | 196 | 4.8 | 6.4 | 0.00 | 0.00 | 0.00 | 82 | 1010.3 |
| 20260506082216 | 17 | 209 | 3.2 | 6.4 | 0.00 | 0.00 | 0.00 | 82 | 1010.3 |
| 20260506082128 | 17 | 213 | 3.2 | 6.4 | 0.00 | 0.00 | 0.00 | 82 | 1010.3 |
| 20260506082023 | 17 | 221 | 3.2 | 6.4 | 0.00 | 0.00 | 0.00 | 82 | 1010.4 |
| 20260506081919 | 17 | 231 | 1.6 | 3.2 | 0.00 | 0.00 | 0.00 | 82 | 1010.2 |
| 20260506081830 | 17 | 206 | 1.6 | 4.8 | 0.00 | 0.00 | 0.00 | 81 | 1010.1 |
| 20260506081726 | 17 | 228 | 1.6 | 4.8 | 0.00 | 0.00 | 0.00 | 81 | 1010.4 |
| 20260506081622 | 17 | 232 | 3.2 | 6.4 | 0.00 | 0.00 | 0.00 | 81 | 1010.4 |
| 20260506081517 | 17 | 214 | 6.4 | 8.0 | 0.00 | 0.00 | 0.00 | 81 | 1010.3 |
| 20260506081429 | 17 | 206 | 6.4 | 8.0 | 0.00 | 0.00 | 0.00 | 81 | 1010.2 |
| 20260506081325 | 17 | 204 | 4.8 | 6.4 | 0.00 | 0.00 | 0.00 | 81 | 1010.3 |
| 20260506081220 | 17 | 183 | 4.8 | 9.7 | 0.00 | 0.00 | 0.00 | 81 | 1010.3 |
| 20260506081136 | 17 | 195 | 4.8 | 9.7 | 0.00 | 0.00 | 0.00 | 81 | 1010.2 |
| 20260506081027 | 17 | 189 | 4.8 | 6.4 | 0.00 | 0.00 | 0.00 | 82 | 1010.3 |
| 20260506080923 | 17 | 253 | 3.2 | 3.2 | 0.00 | 0.00 | 0.00 | 82 | 1010.1 |
| 20260506080819 | 17 | 208 | 4.8 | 8.0 | 0.00 | 0.00 | 0.00 | 82 | 1010.2 |
| 20260506080730 | 17 | 227 | 4.8 | 6.4 | 0.00 | 0.00 | 0.00 | 82 | 1010.4 |
| 20260506080626 | 17 | 209 | 4.8 | 6.4 | 0.00 | 0.00 | 0.00 | 82 | 1010.1 |
| 20260506080521 | 17 | 181 | 3.2 | 6.4 | 0.00 | 0.00 | 0.00 | 81 | 1010.1 |
| 20260506080437 | 17 | 193 | 4.8 | 6.4 | 0.00 | 0.00 | 0.00 | 81 | 1010.1 |
| 20260506080329 | 17 | 210 | 4.8 | 8.0 | 0.00 | 0.00 | 0.00 | 81 | 1010.2 |
| 20260506080224 | 17 | 186 | 3.2 | 6.4 | 0.00 | 0.00 | 0.00 | 81 | 1010.2 |
| 20260506080120 | 17 | 193 | 4.8 | 6.4 | 0.00 | 0.00 | 0.00 | 81 | 1010.0 |
| 20260506073518 | 17 | 189 | 3.2 | 4.8 | 0.00 | 0.00 | 0.00 | 79 | 1010.2 |
| 20260506073450 | 17 | 188 | 3.2 | 8.0 | 0.00 | 0.00 | 0.00 | 79 | 1010.4 |
| 20260506073326 | 17 | 198 | 4.8 | 6.4 | 0.00 | 0.00 | 0.00 | 79 | 1010.3 |
| 20260506073221 | 17 | 197 | 4.8 | 8.0 | 0.00 | 0.00 | 0.00 | 79 | 1010.3 |
| 20260506073117 | 17 | 222 | 1.6 | 4.8 | 0.00 | 0.00 | 0.00 | 79 | 1010.3 |
| 20260506073029 | 17 | 141 | 3.2 | 3.2 | 0.00 | 0.00 | 0.00 | 79 | 1010.2 |
| 20260506072924 | 17 | 200 | 4.8 | 8.0 | 0.00 | 0.00 | 0.00 | 79 | 1010.4 |
| 20260506072840 | 17 | 202 | 1.6 | 4.8 | 0.00 | 0.00 | 0.00 | 79 | 1010.3 |
| 20260506072716 | 17 | 193 | 3.2 | 6.4 | 0.00 | 0.00 | 0.00 | 78 | 1010.2 |
| 20260506072627 | 17 | 195 | 4.8 | 6.4 | 0.00 | 0.00 | 0.00 | 78 | 1010.2 |
| 20260506072523 | 17 | 201 | 3.2 | 6.4 | 0.00 | 0.00 | 0.00 | 79 | 1010.3 |
| 20260506072419 | 17 | 191 | 4.8 | 6.4 | 0.00 | 0.00 | 0.00 | 78 | 1010.2 |
| 20260506072330 | 17 | 203 | 3.2 | 6.4 | 0.00 | 0.00 | 0.00 | 78 | 1010.2 |
| 20260506072226 | 17 | 203 | 4.8 | 6.4 | 0.00 | 0.00 | 0.00 | 78 | 1010.3 |
| 20260506072121 | 17 | 189 | 3.2 | 6.4 | 0.00 | 0.00 | 0.00 | 78 | 1010.3 |
| 20260506072017 | 17 | 189 | 4.8 | 4.8 | 0.00 | 0.00 | 0.00 | 78 | 1010.4 |
| 20260506071929 | 17 | 180 | 3.2 | 6.4 | 0.00 | 0.00 | 0.00 | 78 | 1010.2 |
| 20260506071824 | 17 | 195 | 3.2 | 6.4 | 0.00 | 0.00 | 0.00 | 78 | 1010.3 |
| 20260506071720 | 17 | 198 | 4.8 | 6.4 | 0.00 | 0.00 | 0.00 | 78 | 1010.3 |
| 20260506071636 | 17 | 195 | 4.8 | 6.4 | 0.00 | 0.00 | 0.00 | 78 | 1010.3 |
| 20260506071527 | 17 | 207 | 3.2 | 6.4 | 0.00 | 0.00 | 0.00 | 78 | 1010.4 |
| 20260506071443 | 17 | 197 | 3.2 | 6.4 | 0.00 | 0.00 | 0.00 | 78 | 1010.3 |
| 20260506071319 | 17 | 193 | 3.2 | 4.8 | 0.00 | 0.00 | 0.00 | 78 | 1010.3 |
| 20260506071230 | 17 | 177 | 1.6 | 4.8 | 0.00 | 0.00 | 0.00 | 78 | 1010.3 |
| 20260506071146 | 17 | 200 | 1.6 | 4.8 | 0.00 | 0.00 | 0.00 | 78 | 1010.3 |
| 20260506071022 | 17 | 219 | 3.2 | 4.8 | 0.00 | 0.00 | 0.00 | 78 | 1010.3 |
| 20260506070917 | 17 | 195 | 3.2 | 6.4 | 0.00 | 0.00 | 0.00 | 78 | 1010.3 |
| 20260506070849 | 17 | 194 | 3.2 | 3.2 | 0.00 | 0.00 | 0.00 | 77 | 1010.5 |
| 20260506070725 | 18 | 192 | 3.2 | 4.8 | 0.00 | 0.00 | 0.00 | 77 | 1010.3 |
| 20260506070620 | 18 | 214 | 0.0 | 3.2 | 0.00 | 0.00 | 0.00 | 77 | 1010.3 |
| 20260506070516 | 18 | 200 | 3.2 | 6.4 | 0.00 | 0.00 | 0.00 | 76 | 1010.4 |
| 20260506070448 | 18 | 207 | 3.2 | 4.8 | 0.00 | 0.00 | 0.00 | 76 | 1010.5 |
| 20260506070323 | 18 | 199 | 3.2 | 6.4 | 0.00 | 0.00 | 0.00 | 76 | 1010.3 |
| 20260506070259 | 18 | 189 | 4.8 | 6.4 | 0.00 | 0.00 | 0.00 | 76 | 1010.4 |
| 20260506070130 | 18 | 199 | 4.8 | 6.4 | 0.00 | 0.00 | 0.00 | 76 | 1010.4 |
| 20260506062449 | 18 | 202 | 4.8 | 6.4 | 0.00 | 0.00 | 0.00 | 74 | 1010.4 |
| 20260506062325 | 18 | 207 | 4.8 | 6.4 | 0.00 | 0.00 | 0.00 | 74 | 1010.4 |
| 20260506062221 | 18 | 240 | 1.6 | 4.8 | 0.00 | 0.00 | 0.00 | 74 | 1010.6 |
| 20260506062116 | 18 | 207 | 6.4 | 9.7 | 0.00 | 0.00 | 0.00 | 74 | 1010.6 |
| 20260506062028 | 18 | 207 | 1.6 | 4.8 | 0.00 | 0.00 | 0.00 | 74 | 1010.5 |
| 20260506061924 | 18 | 201 | 3.2 | 4.8 | 0.00 | 0.00 | 0.00 | 74 | 1010.4 |
| 20260506061819 | 18 | 212 | 3.2 | 4.8 | 0.00 | 0.00 | 0.00 | 74 | 1010.6 |
| 20260506061715 | 18 | 218 | 3.2 | 6.4 | 0.00 | 0.00 | 0.00 | 74 | 1010.5 |
| 20260506061627 | 18 | 191 | 6.4 | 9.7 | 0.00 | 0.00 | 0.00 | 74 | 1010.5 |
| 20260506061522 | 18 | 213 | 4.8 | 9.7 | 0.00 | 0.00 | 0.00 | 74 | 1010.6 |
| 20260506061418 | 18 | 202 | 3.2 | 6.4 | 0.00 | 0.00 | 0.00 | 74 | 1010.4 |
| 20260506061330 | 18 | 200 | 4.8 | 8.0 | 0.00 | 0.00 | 0.00 | 74 | 1010.4 |
| 20260506061225 | 18 | 199 | 4.8 | 6.4 | 0.00 | 0.00 | 0.00 | 74 | 1010.3 |
| 20260506061121 | 18 | 205 | 3.2 | 3.2 | 0.00 | 0.00 | 0.00 | 74 | 1010.5 |
| 20260506061017 | 18 | 200 | 3.2 | 6.4 | 0.00 | 0.00 | 0.00 | 74 | 1010.5 |
| 20260506060928 | 18 | 195 | 3.2 | 4.8 | 0.00 | 0.00 | 0.00 | 73 | 1010.4 |
| 20260506060824 | 18 | 196 | 3.2 | 4.8 | 0.00 | 0.00 | 0.00 | 73 | 1010.6 |
| 20260506060720 | 18 | 197 | 3.2 | 4.8 | 0.00 | 0.00 | 0.00 | 73 | 1010.4 |
| 20260506060615 | 18 | 197 | 4.8 | 6.4 | 0.00 | 0.00 | 0.00 | 73 | 1010.4 |
| 20260506060527 | 18 | 204 | 4.8 | 6.4 | 0.00 | 0.00 | 0.00 | 73 | 1010.5 |
| 20260506060422 | 18 | 195 | 3.2 | 6.4 | 0.00 | 0.00 | 0.00 | 73 | 1010.4 |
| 20260506060318 | 18 | 206 | 6.4 | 8.0 | 0.00 | 0.00 | 0.00 | 72 | 1010.6 |
| 20260506060230 | 18 | 200 | 4.8 | 8.0 | 0.00 | 0.00 | 0.00 | 72 | 1010.4 |
| 20260506060126 | 18 | 199 | 4.8 | 6.4 | 0.00 | 0.00 | 0.00 | 72 | 1010.3 |
| 20260506051324 | 18 | 201 | 6.4 | 11.3 | 0.00 | 0.00 | 0.00 | 70 | 1010.8 |
| 20260506051240 | 18 | 215 | 3.2 | 6.4 | 0.00 | 0.00 | 0.00 | 69 | 1010.9 |
| 20260506051115 | 18 | 242 | 3.2 | 6.4 | 0.00 | 0.00 | 0.00 | 69 | 1010.9 |
| 20260506051107 | 18 | 233 | 3.2 | 6.4 | 0.00 | 0.00 | 0.00 | 69 | 1010.8 |
| 20260506050923 | 18 | 220 | 3.2 | 6.4 | 0.00 | 0.00 | 0.00 | 69 | 1011.0 |
| 20260506050818 | 18 | 214 | 4.8 | 9.7 | 0.00 | 0.00 | 0.00 | 69 | 1011.0 |
| 20260506050730 | 18 | 190 | 3.2 | 6.4 | 0.00 | 0.00 | 0.00 | 69 | 1011.1 |
| 20260506050626 | 18 | 212 | 3.2 | 9.7 | 0.00 | 0.00 | 0.00 | 69 | 1011.2 |
| 20260506050541 | 18 | 205 | 4.8 | 9.7 | 0.00 | 0.00 | 0.00 | 69 | 1011.1 |
| 20260506050417 | 18 | 200 | 4.8 | 6.4 | 0.00 | 0.00 | 0.00 | 69 | 1011.1 |
| 20260506050349 | 18 | 207 | 4.8 | 8.0 | 0.00 | 0.00 | 0.00 | 69 | 1011.0 |
| 20260506050244 | 18 | 198 | 4.8 | 8.0 | 0.00 | 0.00 | 0.00 | 69 | 1011.0 |
| 20260506050120 | 18 | 218 | 3.2 | 3.2 | 0.00 | 0.00 | 0.00 | 69 | 1011.0 |
| 20260506045124 | 19 | 181 | 4.8 | 6.4 | 0.00 | 0.00 | 0.00 | 68 | 1010.9 |
| 20260506045020 | 19 | 198 | 4.8 | 6.4 | 0.00 | 0.00 | 0.00 | 68 | 1011.2 |
| 20260506044916 | 19 | 203 | 4.8 | 8.0 | 0.00 | 0.00 | 0.00 | 68 | 1011.0 |
| 20260506044827 | 19 | 208 | 4.8 | 9.7 | 0.00 | 0.00 | 0.00 | 68 | 1010.9 |
| 20260506044723 | 19 | 202 | 6.4 | 9.7 | 0.00 | 0.00 | 0.00 | 68 | 1011.0 |
| 20260506044638 | 19 | 212 | 6.4 | 9.7 | 0.00 | 0.00 | 0.00 | 68 | 1010.8 |
| 20260506044530 | 19 | 193 | 4.8 | 6.4 | 0.00 | 0.00 | 0.00 | 68 | 1010.9 |
| 20260506044426 | 19 | 209 | 3.2 | 6.4 | 0.00 | 0.00 | 0.00 | 67 | 1011.0 |
| 20260506044341 | 19 | 209 | 3.2 | 8.0 | 0.00 | 0.00 | 0.00 | 67 | 1010.9 |
| 20260506044217 | 19 | 199 | 6.4 | 11.3 | 0.00 | 0.00 | 0.00 | 67 | 1011.1 |
| 20260506044129 | 19 | 208 | 4.8 | 9.7 | 0.00 | 0.00 | 0.00 | 67 | 1011.0 |
| 20260506044024 | 19 | 212 | 3.2 | 6.4 | 0.00 | 0.00 | 0.00 | 67 | 1011.0 |
| 20260506043920 | 19 | 201 | 3.2 | 6.4 | 0.00 | 0.00 | 0.00 | 67 | 1011.0 |
| 20260506043816 | 19 | 196 | 3.2 | 6.4 | 0.00 | 0.00 | 0.00 | 67 | 1011.1 |
| 20260506043727 | 19 | 220 | 3.2 | 6.4 | 0.00 | 0.00 | 0.00 | 67 | 1011.1 |
| 20260506043623 | 19 | 203 | 4.8 | 8.0 | 0.00 | 0.00 | 0.00 | 67 | 1011.0 |
| 20260506043518 | 19 | 188 | 6.4 | 8.0 | 0.00 | 0.00 | 0.00 | 67 | 1010.9 |
| 20260506043430 | 19 | 243 | 6.4 | 9.7 | 0.00 | 0.00 | 0.00 | 67 | 1011.0 |
| 20260506043326 | 19 | 192 | 3.2 | 4.8 | 0.00 | 0.00 | 0.00 | 67 | 1011.0 |
| 20260506043222 | 19 | 185 | 3.2 | 6.4 | 0.00 | 0.00 | 0.00 | 67 | 1011.0 |
| 20260506043137 | 19 | 192 | 8.0 | 8.0 | 0.00 | 0.00 | 0.00 | 67 | 1010.9 |
| 20260506043029 | 19 | 202 | 3.2 | 4.8 | 0.00 | 0.00 | 0.00 | 67 | 1010.9 |
| 20260506042925 | 19 | 211 | 6.4 | 9.7 | 0.00 | 0.00 | 0.00 | 67 | 1010.9 |
| 20260506042820 | 19 | 123 | 1.6 | 3.2 | 0.00 | 0.00 | 0.00 | 67 | 1011.0 |
| 20260506042736 | 19 | 204 | 1.6 | 4.8 | 0.00 | 0.00 | 0.00 | 67 | 1011.0 |
| 20260506042627 | 19 | 201 | 1.6 | 4.8 | 0.00 | 0.00 | 0.00 | 67 | 1011.0 |
| 20260506042523 | 19 | 208 | 4.8 | 6.4 | 0.00 | 0.00 | 0.00 | 67 | 1010.9 |
| 20260506042419 | 19 | 201 | 4.8 | 9.7 | 0.00 | 0.00 | 0.00 | 66 | 1010.9 |
| 20260506042330 | 19 | 203 | 6.4 | 9.7 | 0.00 | 0.00 | 0.00 | 66 | 1011.0 |
| 20260506042226 | 19 | 202 | 3.2 | 6.4 | 0.00 | 0.00 | 0.00 | 66 | 1010.8 |
| 20260506042122 | 19 | 215 | 3.2 | 9.7 | 0.00 | 0.00 | 0.00 | 66 | 1010.9 |
| 20260506042017 | 19 | 203 | 6.4 | 11.3 | 0.00 | 0.00 | 0.00 | 66 | 1011.1 |
| 20260506041929 | 19 | 215 | 4.8 | 8.0 | 0.00 | 0.00 | 0.00 | 66 | 1010.8 |
| 20260506041824 | 19 | 201 | 4.8 | 8.0 | 0.00 | 0.00 | 0.00 | 66 | 1010.9 |
| 20260506041720 | 19 | 198 | 3.2 | 6.4 | 0.00 | 0.00 | 0.00 | 66 | 1010.7 |
| 20260506041616 | 19 | 216 | 4.8 | 6.4 | 0.00 | 0.00 | 0.00 | 66 | 1010.9 |
| 20260506041527 | 19 | 227 | 6.4 | 9.7 | 0.00 | 0.00 | 0.00 | 65 | 1010.8 |
| 20260506041423 | 19 | 206 | 4.8 | 17.7 | 0.00 | 0.00 | 0.00 | 65 | 1010.9 |
| 20260506041319 | 19 | 194 | 6.4 | 16.1 | 0.00 | 0.00 | 0.00 | 66 | 1010.7 |
| 20260506041230 | 19 | 213 | 6.4 | 9.7 | 0.00 | 0.00 | 0.00 | 66 | 1010.9 |
| 20260506041126 | 19 | 208 | 3.2 | 8.0 | 0.00 | 0.00 | 0.00 | 66 | 1010.8 |
| 20260506041021 | 20 | 211 | 6.4 | 8.0 | 0.00 | 0.00 | 0.00 | 65 | 1010.9 |
| 20260506040917 | 20 | 202 | 1.6 | 4.8 | 0.00 | 0.00 | 0.00 | 65 | 1011.1 |
| 20260506040829 | 20 | 220 | 4.8 | 9.7 | 0.00 | 0.00 | 0.00 | 65 | 1010.9 |
| 20260506040724 | 20 | 202 | 6.4 | 11.3 | 0.00 | 0.00 | 0.00 | 65 | 1011.0 |
| 20260506040620 | 20 | 195 | 4.8 | 11.3 | 0.00 | 0.00 | 0.00 | 65 | 1010.9 |
| 20260506040555 | 20 | 206 | 8.0 | 11.3 | 0.00 | 0.00 | 0.00 | 65 | 1011.0 |
| 20260506040427 | 20 | 246 | 6.4 | 8.0 | 0.00 | 0.00 | 0.00 | 64 | 1010.9 |
| 20260506040322 | 20 | 211 | 6.4 | 9.7 | 0.00 | 0.00 | 0.00 | 64 | 1011.0 |
| 20260506040218 | 20 | 223 | 6.4 | 9.7 | 0.00 | 0.00 | 0.00 | 64 | 1010.9 |
| 20260506040130 | 20 | 219 | 4.8 | 8.0 | 0.00 | 0.00 | 0.00 | 64 | 1010.8 |
| 20260506040025 | 20 | 186 | 3.2 | 6.4 | 0.00 | 0.00 | 0.00 | 64 | 1010.8 |
| 20260506035941 | 20 | 209 | 4.8 | 12.9 | 0.00 | 0.00 | 0.00 | 64 | 1010.9 |
| 20260506035817 | 20 | 203 | 9.7 | 14.5 | 0.00 | 0.00 | 0.00 | 64 | 1010.9 |
| 20260506035728 | 20 | 205 | 3.2 | 6.4 | 0.00 | 0.00 | 0.00 | 64 | 1011.0 |
| 20260506035624 | 20 | 208 | 6.4 | 9.7 | 0.00 | 0.00 | 0.00 | 64 | 1010.8 |
| 20260506035520 | 20 | 201 | 12.9 | 17.7 | 0.00 | 0.00 | 0.00 | 64 | 1010.7 |
| 20260506035415 | 20 | 212 | 8.0 | 12.9 | 0.00 | 0.00 | 0.00 | 64 | 1010.8 |
| 20260506035347 | 20 | 196 | 6.4 | 11.3 | 0.00 | 0.00 | 0.00 | 64 | 1011.0 |
| 20260506035223 | 20 | 227 | 6.4 | 12.9 | 0.00 | 0.00 | 0.00 | 64 | 1010.8 |
| 20260506035138 | 20 | 238 | 3.2 | 6.4 | 0.00 | 0.00 | 0.00 | 64 | 1010.9 |
| 20260506035030 | 20 | 204 | 6.4 | 9.7 | 0.00 | 0.00 | 0.00 | 64 | 1010.8 |
| 20260506034926 | 20 | 219 | 8.0 | 9.7 | 0.00 | 0.00 | 0.00 | 64 | 1010.7 |
| 20260506034841 | 20 | 207 | 6.4 | 9.7 | 0.00 | 0.00 | 0.00 | 64 | 1010.8 |
| 20260506034716 | 20 | 217 | 4.8 | 8.0 | 0.00 | 0.00 | 0.00 | 64 | 1010.7 |
| 20260506034628 | 20 | 203 | 4.8 | 9.7 | 0.00 | 0.00 | 0.00 | 64 | 1010.8 |
| 20260506034524 | 20 | 203 | 6.4 | 8.0 | 0.00 | 0.00 | 0.00 | 64 | 1010.9 |
| 20260506034419 | 20 | 215 | 4.8 | 8.0 | 0.00 | 0.00 | 0.00 | 63 | 1011.1 |
| 20260506034331 | 20 | 217 | 3.2 | 6.4 | 0.00 | 0.00 | 0.00 | 63 | 1011.0 |
| 20260506034246 | 20 | 213 | 4.8 | 9.7 | 0.00 | 0.00 | 0.00 | 63 | 1010.9 |
| 20260506034122 | 20 | 211 | 6.4 | 6.4 | 0.00 | 0.00 | 0.00 | 63 | 1010.9 |
| 20260506034018 | 20 | 211 | 4.8 | 12.9 | 0.00 | 0.00 | 0.00 | 63 | 1010.9 |
| 20260506033929 | 20 | 213 | 9.7 | 14.5 | 0.00 | 0.00 | 0.00 | 63 | 1010.8 |
| 20260506033825 | 20 | 208 | 6.4 | 12.9 | 0.00 | 0.00 | 0.00 | 63 | 1011.1 |
| 20260506033720 | 20 | 210 | 4.8 | 8.0 | 0.00 | 0.00 | 0.00 | 63 | 1010.9 |
| 20260506033616 | 20 | 219 | 9.7 | 16.1 | 0.00 | 0.00 | 0.00 | 63 | 1010.9 |
| 20260506033608 | 20 | 208 | 4.8 | 9.7 | 0.00 | 0.00 | 0.00 | 63 | 1011.1 |
| 20260506033443 | 20 | 208 | 6.4 | 9.7 | 0.00 | 0.00 | 0.00 | 63 | 1011.0 |
| 20260506033319 | 20 | 209 | 8.0 | 9.7 | 0.00 | 0.00 | 0.00 | 62 | 1010.9 |
| 20260506033230 | 20 | 204 | 3.2 | 8.0 | 0.00 | 0.00 | 0.00 | 63 | 1010.9 |
| 20260506033126 | 20 | 231 | 4.8 | 12.9 | 0.00 | 0.00 | 0.00 | 62 | 1010.9 |
| 20260506033022 | 20 | 213 | 8.0 | 14.5 | 0.00 | 0.00 | 0.00 | 63 | 1010.9 |
| 20260506032957 | 20 | 213 | 4.8 | 8.0 | 0.00 | 0.00 | 0.00 | 63 | 1010.7 |
| 20260506032829 | 20 | 216 | 6.4 | 6.4 | 0.00 | 0.00 | 0.00 | 62 | 1010.7 |
| 20260506032724 | 20 | 216 | 4.8 | 6.4 | 0.00 | 0.00 | 0.00 | 62 | 1010.8 |
| 20260506032620 | 20 | 204 | 4.8 | 9.7 | 0.00 | 0.00 | 0.00 | 62 | 1010.9 |
| 20260506032516 | 20 | 207 | 6.4 | 9.7 | 0.00 | 0.00 | 0.00 | 62 | 1010.9 |
| 20260506032447 | 20 | 204 | 3.2 | 4.8 | 0.00 | 0.00 | 0.00 | 62 | 1010.9 |
| 20260506032343 | 20 | 195 | 3.2 | 6.4 | 0.00 | 0.00 | 0.00 | 62 | 1010.9 |
| 20260506032218 | 20 | 224 | 8.0 | 11.3 | 0.00 | 0.00 | 0.00 | 61 | 1010.9 |
| 20260506032150 | 20 | 237 | 8.0 | 12.9 | 0.00 | 0.00 | 0.00 | 62 | 1010.9 |
| 20260506032046 | 20 | 230 | 4.8 | 9.7 | 0.00 | 0.00 | 0.00 | 61 | 1010.6 |
| 20260506031921 | 20 | 206 | 6.4 | 9.7 | 0.00 | 0.00 | 0.00 | 61 | 1010.9 |
| 20260506031816 | 20 | 205 | 8.0 | 11.3 | 0.00 | 0.00 | 0.00 | 61 | 1010.8 |
| 20260506031728 | 20 | 236 | 4.8 | 9.7 | 0.00 | 0.00 | 0.00 | 61 | 1010.9 |
| 20260506031624 | 20 | 264 | 3.2 | 11.3 | 0.00 | 0.00 | 0.00 | 61 | 1010.7 |
| 20260506031540 | 20 | 209 | 6.4 | 14.5 | 0.00 | 0.00 | 0.00 | 61 | 1010.8 |
| 20260506031435 | 20 | 203 | 6.4 | 9.7 | 0.00 | 0.00 | 0.00 | 61 | 1010.8 |
| 20260506031327 | 20 | 207 | 8.0 | 14.5 | 0.00 | 0.00 | 0.00 | 61 | 1011.1 |
| 20260506031222 | 20 | 215 | 6.4 | 11.3 | 0.00 | 0.00 | 0.00 | 61 | 1010.8 |
| 20260506031118 | 20 | 204 | 4.8 | 8.0 | 0.00 | 0.00 | 0.00 | 61 | 1010.8 |
| 20260506031050 | 20 | 223 | 4.8 | 12.9 | 0.00 | 0.00 | 0.00 | 61 | 1011.0 |
| 20260506030925 | 20 | 200 | 8.0 | 14.5 | 0.00 | 0.00 | 0.00 | 61 | 1010.8 |
| 20260506030821 | 20 | 215 | 9.7 | 14.5 | 0.00 | 0.00 | 0.00 | 60 | 1010.9 |
| 20260506030717 | 20 | 205 | 6.4 | 11.3 | 0.00 | 0.00 | 0.00 | 61 | 1010.8 |
| 20260506030628 | 20 | 214 | 6.4 | 9.7 | 0.00 | 0.00 | 0.00 | 60 | 1010.8 |
| 20260506030524 | 20 | 211 | 6.4 | 12.9 | 0.00 | 0.00 | 0.00 | 60 | 1010.7 |
| 20260506030420 | 20 | 196 | 8.0 | 9.7 | 0.00 | 0.00 | 0.00 | 60 | 1010.8 |
| 20260506030315 | 20 | 228 | 6.4 | 8.0 | 0.00 | 0.00 | 0.00 | 60 | 1010.7 |
| 20260506030227 | 20 | 216 | 11.3 | 19.3 | 0.00 | 0.00 | 0.00 | 60 | 1010.9 |
| 20260506030123 | 20 | 200 | 8.0 | 14.5 | 0.00 | 0.00 | 0.00 | 60 | 1010.8 |
| 20260506030018 | 20 | 213 | 6.4 | 19.3 | 0.00 | 0.00 | 0.00 | 59 | 1010.9 |
| 20260506025930 | 20 | 201 | 6.4 | 20.9 | 0.00 | 0.00 | 0.00 | 60 | 1010.7 |
| 20260506025825 | 20 | 230 | 6.4 | 12.9 | 0.00 | 0.00 | 0.00 | 60 | 1010.6 |
| 20260506025721 | 20 | 213 | 8.0 | 11.3 | 0.00 | 0.00 | 0.00 | 60 | 1010.8 |
| 20260506025637 | 20 | 210 | 8.0 | 11.3 | 0.00 | 0.00 | 0.00 | 60 | 1010.8 |
| 20260506025549 | 20 | 200 | 4.8 | 8.0 | 0.00 | 0.00 | 0.00 | 59 | 1010.7 |
| 20260506025424 | 20 | 204 | 6.4 | 14.5 | 0.00 | 0.00 | 0.00 | 59 | 1010.7 |
| 20260506025320 | 20 | 197 | 6.4 | 11.3 | 0.00 | 0.00 | 0.00 | 59 | 1010.8 |
| 20260506025215 | 20 | 206 | 4.8 | 8.0 | 0.00 | 0.00 | 0.00 | 59 | 1010.7 |
| 20260506025127 | 20 | 201 | 4.8 | 6.4 | 0.00 | 0.00 | 0.00 | 59 | 1010.6 |
| 20260506025023 | 20 | 208 | 6.4 | 11.3 | 0.00 | 0.00 | 0.00 | 59 | 1010.8 |
| 20260506024918 | 21 | 218 | 6.4 | 14.5 | 0.00 | 0.00 | 0.00 | 59 | 1010.7 |
| 20260506024830 | 21 | 220 | 8.0 | 9.7 | 0.00 | 0.00 | 0.00 | 59 | 1010.8 |
| 20260506024726 | 21 | 199 | 4.8 | 11.3 | 0.00 | 0.00 | 0.00 | 59 | 1010.8 |
| 20260506024641 | 21 | 207 | 4.8 | 11.3 | 0.00 | 0.00 | 0.00 | 59 | 1010.8 |
| 20260506024537 | 20 | 216 | 8.0 | 14.5 | 0.00 | 0.00 | 0.00 | 59 | 1010.8 |
| 20260506024428 | 20 | 208 | 9.7 | 19.3 | 0.00 | 0.00 | 0.00 | 59 | 1010.7 |
| 20260506024324 | 21 | 222 | 6.4 | 9.7 | 0.00 | 0.00 | 0.00 | 59 | 1010.6 |
| 20260506024219 | 21 | 200 | 9.7 | 11.3 | 0.00 | 0.00 | 0.00 | 59 | 1010.7 |
| 20260506024115 | 21 | 208 | 6.4 | 12.9 | 0.00 | 0.00 | 0.00 | 59 | 1010.9 |
| 20260506024027 | 21 | 218 | 4.8 | 9.7 | 0.00 | 0.00 | 0.00 | 59 | 1010.7 |
| 20260506023923 | 21 | 223 | 3.2 | 8.0 | 0.00 | 0.00 | 0.00 | 59 | 1010.8 |
| 20260506023838 | 21 | 208 | 6.4 | 9.7 | 0.00 | 0.00 | 0.00 | 59 | 1010.8 |
| 20260506023730 | 21 | 206 | 4.8 | 9.7 | 0.00 | 0.00 | 0.00 | 59 | 1010.7 |
| 20260506023625 | 21 | 225 | 8.0 | 16.1 | 0.00 | 0.00 | 0.00 | 58 | 1010.6 |
| 20260506023521 | 21 | 202 | 16.1 | 17.7 | 0.00 | 0.00 | 0.00 | 58 | 1010.8 |
| 20260506023417 | 21 | 205 | 6.4 | 14.5 | 0.00 | 0.00 | 0.00 | 58 | 1011.0 |
| 20260506023329 | 21 | 194 | 6.4 | 14.5 | 0.00 | 0.00 | 0.00 | 58 | 1010.7 |
| 20260506023224 | 21 | 213 | 8.0 | 9.7 | 0.00 | 0.00 | 0.00 | 58 | 1010.8 |
| 20260506023120 | 21 | 203 | 9.7 | 22.5 | 0.00 | 0.00 | 0.00 | 58 | 1011.0 |
| 20260506023015 | 21 | 204 | 8.0 | 22.5 | 0.00 | 0.00 | 0.00 | 58 | 1010.8 |
| 20260506022927 | 21 | 201 | 9.7 | 16.1 | 0.00 | 0.00 | 0.00 | 58 | 1010.8 |
| 20260506022823 | 21 | 246 | 8.0 | 16.1 | 0.00 | 0.00 | 0.00 | 58 | 1010.9 |
| 20260506022738 | 21 | 227 | 8.0 | 11.3 | 0.00 | 0.00 | 0.00 | 58 | 1010.6 |
| 20260506022630 | 21 | 215 | 6.4 | 9.7 | 0.00 | 0.00 | 0.00 | 58 | 1010.7 |
| 20260506022546 | 21 | 236 | 6.4 | 11.3 | 0.00 | 0.00 | 0.00 | 58 | 1010.9 |
| 20260506022420 | 21 | 191 | 9.7 | 14.5 | 0.00 | 0.00 | 0.00 | 58 | 1010.7 |
| 20260506022316 | 21 | 206 | 4.8 | 9.7 | 0.00 | 0.00 | 0.00 | 59 | 1010.7 |
| 20260506022248 | 21 | 216 | 4.8 | 9.7 | 0.00 | 0.00 | 0.00 | 58 | 1010.9 |
| 20260506022123 | 21 | 227 | 6.4 | 9.7 | 0.00 | 0.00 | 0.00 | 58 | 1010.7 |
| 20260506022019 | 21 | 207 | 8.0 | 11.3 | 0.00 | 0.00 | 0.00 | 58 | 1010.7 |
| 20260506021931 | 21 | 203 | 8.0 | 11.3 | 0.00 | 0.00 | 0.00 | 58 | 1010.8 |
| 20260506021846 | 21 | 229 | 4.8 | 8.0 | 0.00 | 0.00 | 0.00 | 58 | 1010.6 |
| 20260506021722 | 21 | 202 | 4.8 | 9.7 | 0.00 | 0.00 | 0.00 | 58 | 1010.8 |
| 20260506021617 | 21 | 195 | 3.2 | 12.9 | 0.00 | 0.00 | 0.00 | 58 | 1010.8 |
| 20260506021529 | 21 | 201 | 6.4 | 12.9 | 0.00 | 0.00 | 0.00 | 58 | 1010.7 |
| 20260506021425 | 21 | 218 | 6.4 | 12.9 | 0.00 | 0.00 | 0.00 | 58 | 1010.7 |
| 20260506021320 | 21 | 210 | 4.8 | 9.7 | 0.00 | 0.00 | 0.00 | 58 | 1010.8 |
| 20260506021216 | 21 | 212 | 9.7 | 14.5 | 0.00 | 0.00 | 0.00 | 57 | 1010.9 |
| 20260506021128 | 21 | 219 | 9.7 | 16.1 | 0.00 | 0.00 | 0.00 | 57 | 1010.8 |
| 20260506021023 | 21 | 205 | 9.7 | 12.9 | 0.00 | 0.00 | 0.00 | 58 | 1010.5 |
| 20260506020919 | 21 | 214 | 9.7 | 16.1 | 0.00 | 0.00 | 0.00 | 57 | 1010.6 |
| 20260506020830 | 21 | 214 | 8.0 | 11.3 | 0.00 | 0.00 | 0.00 | 58 | 1010.8 |
| 20260506020726 | 21 | 223 | 4.8 | 9.7 | 0.00 | 0.00 | 0.00 | 58 | 1010.7 |
| 20260506020622 | 21 | 204 | 8.0 | 17.7 | 0.00 | 0.00 | 0.00 | 57 | 1010.7 |
| 20260506020517 | 21 | 240 | 4.8 | 6.4 | 0.00 | 0.00 | 0.00 | 57 | 1010.6 |
| 20260506020429 | 21 | 219 | 6.4 | 11.3 | 0.00 | 0.00 | 0.00 | 57 | 1011.0 |
| 20260506020325 | 21 | 213 | 6.4 | 9.7 | 0.00 | 0.00 | 0.00 | 57 | 1010.7 |
| 20260506020220 | 21 | 252 | 6.4 | 9.7 | 0.00 | 0.00 | 0.00 | 57 | 1010.5 |
| 20260506020116 | 21 | 200 | 8.0 | 16.1 | 0.00 | 0.00 | 0.00 | 57 | 1010.6 |
| 20260506020028 | 21 | 200 | 9.7 | 19.3 | 0.00 | 0.00 | 0.00 | 57 | 1010.8 |
| 20260506015923 | 21 | 201 | 9.7 | 20.9 | 0.00 | 0.00 | 0.00 | 57 | 1010.8 |
| 20260506015819 | 21 | 207 | 6.4 | 9.7 | 0.00 | 0.00 | 0.00 | 57 | 1010.5 |
| 20260506015731 | 21 | 210 | 4.8 | 9.7 | 0.00 | 0.00 | 0.00 | 57 | 1010.7 |
| 20260506015626 | 21 | 218 | 3.2 | 11.3 | 0.00 | 0.00 | 0.00 | 57 | 1010.7 |
| 20260506015542 | 21 | 203 | 11.3 | 14.5 | 0.00 | 0.00 | 0.00 | 57 | 1010.9 |
| 20260506015437 | 21 | 200 | 3.2 | 6.4 | 0.00 | 0.00 | 0.00 | 57 | 1010.8 |
| 20260506015329 | 21 | 196 | 4.8 | 9.7 | 0.00 | 0.00 | 0.00 | 56 | 1010.8 |
| 20260506015225 | 21 | 201 | 8.0 | 9.7 | 0.00 | 0.00 | 0.00 | 56 | 1010.8 |
| 20260506015120 | 21 | 218 | 4.8 | 8.0 | 0.00 | 0.00 | 0.00 | 56 | 1010.7 |
| 20260506015016 | 21 | 200 | 6.4 | 9.7 | 0.00 | 0.00 | 0.00 | 56 | 1010.9 |
| 20260506014927 | 21 | 211 | 3.2 | 6.4 | 0.00 | 0.00 | 0.00 | 56 | 1010.9 |
| 20260506014823 | 21 | 214 | 8.0 | 14.5 | 0.00 | 0.00 | 0.00 | 56 | 1010.6 |
| 20260506014719 | 21 | 223 | 12.9 | 17.7 | 0.00 | 0.00 | 0.00 | 56 | 1010.5 |
| 20260506014631 | 21 | 209 | 6.4 | 9.7 | 0.00 | 0.00 | 0.00 | 56 | 1010.5 |
| 20260506014526 | 21 | 200 | 4.8 | 9.7 | 0.00 | 0.00 | 0.00 | 56 | 1010.5 |
| 20260506014442 | 21 | 209 | 6.4 | 11.3 | 0.00 | 0.00 | 0.00 | 55 | 1010.5 |
| 20260506014317 | 22 | 233 | 4.8 | 9.7 | 0.00 | 0.00 | 0.00 | 55 | 1010.6 |
| 20260506014229 | 22 | 223 | 6.4 | 11.3 | 0.00 | 0.00 | 0.00 | 55 | 1010.6 |
| 20260506014124 | 22 | 222 | 4.8 | 8.0 | 0.00 | 0.00 | 0.00 | 55 | 1010.7 |
| 20260506014020 | 22 | 223 | 4.8 | 11.3 | 0.00 | 0.00 | 0.00 | 55 | 1010.6 |
| 20260506013936 | 22 | 188 | 8.0 | 16.1 | 0.00 | 0.00 | 0.00 | 54 | 1010.6 |
| 20260506013908 | 22 | 210 | 6.4 | 9.7 | 0.00 | 0.00 | 0.00 | 54 | 1010.7 |
| 20260506013723 | 22 | 205 | 4.8 | 8.0 | 0.00 | 0.00 | 0.00 | 54 | 1010.5 |
| 20260506013619 | 22 | 191 | 3.2 | 6.4 | 0.00 | 0.00 | 0.00 | 54 | 1010.7 |
| 20260506013531 | 22 | 212 | 3.2 | 6.4 | 0.00 | 0.00 | 0.00 | 54 | 1010.6 |
| 20260506013426 | 22 | 209 | 8.0 | 12.9 | 0.00 | 0.00 | 0.00 | 53 | 1010.6 |
| 20260506013322 | 22 | 217 | 4.8 | 8.0 | 0.00 | 0.00 | 0.00 | 53 | 1010.5 |
| 20260506013217 | 22 | 198 | 6.4 | 9.7 | 0.00 | 0.00 | 0.00 | 53 | 1010.5 |
| 20260506013129 | 22 | 209 | 8.0 | 11.3 | 0.00 | 0.00 | 0.00 | 52 | 1010.5 |
| 20260506013025 | 22 | 187 | 3.2 | 11.3 | 0.00 | 0.00 | 0.00 | 52 | 1010.5 |
| 20260506012920 | 22 | 211 | 9.7 | 11.3 | 0.00 | 0.00 | 0.00 | 51 | 1010.5 |
| 20260506012836 | 22 | 216 | 12.9 | 25.7 | 0.00 | 0.00 | 0.00 | 51 | 1010.5 |
| 20260506012728 | 22 | 201 | 4.8 | 9.7 | 0.00 | 0.00 | 0.00 | 50 | 1010.4 |
| 20260506012623 | 22 | 207 | 8.0 | 12.9 | 0.00 | 0.00 | 0.00 | 50 | 1010.5 |
| 20260506012539 | 22 | 223 | 6.4 | 9.7 | 0.00 | 0.00 | 0.00 | 49 | 1010.5 |
| 20260506012430 | 23 | 210 | 8.0 | 11.3 | 0.00 | 0.00 | 0.00 | 50 | 1010.4 |
| 20260506012326 | 23 | 239 | 6.4 | 11.3 | 0.00 | 0.00 | 0.00 | 49 | 1010.4 |
| 20260506012222 | 23 | 211 | 12.9 | 17.7 | 0.00 | 0.00 | 0.00 | 49 | 1010.3 |
| 20260506012117 | 23 | 202 | 6.4 | 9.7 | 0.00 | 0.00 | 0.00 | 48 | 1010.3 |
| 20260506012029 | 23 | 209 | 8.0 | 14.5 | 0.00 | 0.00 | 0.00 | 48 | 1010.4 |
| 20260506011945 | 23 | 205 | 6.4 | 9.7 | 0.00 | 0.00 | 0.00 | 48 | 1010.4 |
| 20260506011820 | 23 | 200 | 4.8 | 6.4 | 0.00 | 0.00 | 0.00 | 48 | 1010.4 |
| 20260506011716 | 23 | 204 | 6.4 | 6.4 | 0.00 | 0.00 | 0.00 | 47 | 1010.2 |
| 20260506011627 | 23 | 211 | 11.3 | 17.7 | 0.00 | 0.00 | 0.00 | 47 | 1010.2 |
| 20260506011523 | 23 | 227 | 6.4 | 11.3 | 0.00 | 0.00 | 0.00 | 47 | 1010.2 |
| 20260506011419 | 23 | 221 | 3.2 | 4.8 | 0.00 | 0.00 | 0.00 | 47 | 1010.0 |
| 20260506011331 | 23 | 201 | 4.8 | 9.7 | 0.00 | 0.00 | 0.00 | 47 | 1010.1 |
| 20260506011226 | 23 | 207 | 4.8 | 8.0 | 0.00 | 0.00 | 0.00 | 46 | 1010.1 |
| 20260506011122 | 23 | 194 | 4.8 | 8.0 | 0.00 | 0.00 | 0.00 | 46 | 1010.3 |
| 20260506011017 | 23 | 223 | 4.8 | 8.0 | 0.00 | 0.00 | 0.00 | 46 | 1010.1 |
| 20260506010929 | 23 | 220 | 6.4 | 9.7 | 0.00 | 0.00 | 0.00 | 46 | 1010.0 |
| 20260506010825 | 23 | 226 | 8.0 | 14.5 | 0.00 | 0.00 | 0.00 | 46 | 1010.1 |
| 20260506010720 | 23 | 197 | 8.0 | 12.9 | 0.00 | 0.00 | 0.00 | 45 | 1010.0 |
| 20260506010616 | 23 | 214 | 8.0 | 14.5 | 0.00 | 0.00 | 0.00 | 46 | 1010.1 |
| 20260506010528 | 23 | 217 | 8.0 | 12.9 | 0.00 | 0.00 | 0.00 | 45 | 1009.9 |
| 20260506010423 | 23 | 212 | 4.8 | 9.7 | 0.00 | 0.00 | 0.00 | 46 | 1010.0 |
| 20260506010319 | 23 | 201 | 8.0 | 14.5 | 0.00 | 0.00 | 0.00 | 45 | 1010.0 |
| 20260506010230 | 23 | 212 | 6.4 | 9.7 | 0.00 | 0.00 | 0.00 | 45 | 1010.0 |
| 20260506010126 | 23 | 194 | 4.8 | 14.5 | 0.00 | 0.00 | 0.00 | 45 | 1010.0 |
| 20260506010022 | 23 | 211 | 9.7 | 16.1 | 0.00 | 0.00 | 0.00 | 44 | 1010.0 |
| 20260506005918 | 23 | 248 | 6.4 | 8.0 | 0.00 | 0.00 | 0.00 | 44 | 1009.7 |
| 20260506005849 | 23 | 220 | 3.2 | 11.3 | 0.00 | 0.00 | 0.00 | 44 | 1009.9 |
| 20260506005725 | 23 | 214 | 8.0 | 12.9 | 0.00 | 0.00 | 0.00 | 44 | 1009.9 |
| 20260506005700 | 23 | 220 | 6.4 | 9.7 | 0.00 | 0.00 | 0.00 | 44 | 1009.9 |
| 20260506005516 | 23 | 236 | 4.8 | 9.7 | 0.00 | 0.00 | 0.00 | 44 | 1009.6 |
| 20260506005427 | 23 | 216 | 8.0 | 19.3 | 0.00 | 0.00 | 0.00 | 43 | 1009.9 |
| 20260506005323 | 23 | 233 | 4.8 | 8.0 | 0.00 | 0.00 | 0.00 | 44 | 1009.9 |
| 20260506005219 | 23 | 229 | 4.8 | 8.0 | 0.00 | 0.00 | 0.00 | 43 | 1009.9 |
| 20260506005130 | 23 | 225 | 9.7 | 16.1 | 0.00 | 0.00 | 0.00 | 43 | 1009.8 |
| 20260506005026 | 23 | 207 | 8.0 | 11.3 | 0.00 | 0.00 | 0.00 | 43 | 1009.9 |
| 20260506004921 | 24 | 217 | 4.8 | 8.0 | 0.00 | 0.00 | 0.00 | 43 | 1009.7 |
| 20260506004837 | 24 | 210 | 6.4 | 14.5 | 0.00 | 0.00 | 0.00 | 43 | 1009.7 |
| 20260506004729 | 24 | 213 | 8.0 | 11.3 | 0.00 | 0.00 | 0.00 | 43 | 1009.9 |
| 20260506004645 | 23 | 202 | 8.0 | 11.3 | 0.00 | 0.00 | 0.00 | 43 | 1009.8 |
| 20260506004540 | 23 | 215 | 8.0 | 12.9 | 0.00 | 0.00 | 0.00 | 43 | 1009.9 |
| 20260506004416 | 24 | 223 | 3.2 | 6.4 | 0.00 | 0.00 | 0.00 | 43 | 1009.8 |
| 20260506004327 | 24 | 202 | 4.8 | 8.0 | 0.00 | 0.00 | 0.00 | 43 | 1009.7 |
| 20260506004223 | 24 | 217 | 4.8 | 4.8 | 0.00 | 0.00 | 0.00 | 43 | 1009.8 |
| 20260506004119 | 24 | 210 | 4.8 | 6.4 | 0.00 | 0.00 | 0.00 | 42 | 1009.6 |
| 20260506004050 | 24 | 204 | 6.4 | 9.7 | 0.00 | 0.00 | 0.00 | 43 | 1009.7 |
| 20260506003926 | 24 | 197 | 4.8 | 8.0 | 0.00 | 0.00 | 0.00 | 43 | 1009.7 |
| 20260506003824 | 24 | 223 | 3.2 | 6.4 | 0.00 | 0.00 | 0.00 | 42 | 1009.8 |
| 20260506003717 | 24 | 200 | 4.8 | 8.0 | 0.00 | 0.00 | 0.00 | 42 | 1009.7 |
| 20260506003629 | 24 | 217 | 6.4 | 11.3 | 0.00 | 0.00 | 0.00 | 42 | 1009.8 |
| 20260506003524 | 24 | 206 | 6.4 | 11.3 | 0.00 | 0.00 | 0.00 | 42 | 1009.8 |
| 20260506003420 | 24 | 201 | 4.8 | 8.0 | 0.00 | 0.00 | 0.00 | 42 | 1009.7 |
| 20260506003316 | 24 | 214 | 3.2 | 4.8 | 0.00 | 0.00 | 0.00 | 42 | 1009.8 |
| 20260506003247 | 24 | 223 | 4.8 | 6.4 | 0.00 | 0.00 | 0.00 | 42 | 1009.7 |
| 20260506003143 | 24 | 208 | 9.7 | 14.5 | 0.00 | 0.00 | 0.00 | 41 | 1009.7 |
| 20260506003038 | 24 | 209 | 6.4 | 8.0 | 0.00 | 0.00 | 0.00 | 41 | 1009.5 |
| 20260506002950 | 24 | 219 | 6.4 | 9.7 | 0.00 | 0.00 | 0.00 | 41 | 1009.5 |
| 20260506002825 | 24 | 204 | 6.4 | 11.3 | 0.00 | 0.00 | 0.00 | 41 | 1009.7 |
| 20260506002721 | 25 | 209 | 3.2 | 8.0 | 0.00 | 0.00 | 0.00 | 42 | 1009.8 |
| 20260506002616 | 25 | 212 | 6.4 | 8.0 | 0.00 | 0.00 | 0.00 | 41 | 1009.7 |
| 20260506002528 | 25 | 203 | 8.0 | 14.5 | 0.00 | 0.00 | 0.00 | 41 | 1009.6 |
| 20260506002423 | 25 | 209 | 9.7 | 14.5 | 0.00 | 0.00 | 0.00 | 41 | 1009.6 |
| 20260506002319 | 24 | 200 | 8.0 | 14.5 | 0.00 | 0.00 | 0.00 | 41 | 1009.7 |
| 20260506002231 | 25 | 216 | 6.4 | 9.7 | 0.00 | 0.00 | 0.00 | 41 | 1009.9 |
| 20260506002126 | 25 | 215 | 3.2 | 8.0 | 0.00 | 0.00 | 0.00 | 42 | 1009.7 |
| 20260506002022 | 25 | 225 | 4.8 | 12.9 | 0.00 | 0.00 | 0.00 | 41 | 1009.7 |
| 20260506001918 | 25 | 201 | 6.4 | 8.0 | 0.00 | 0.00 | 0.00 | 41 | 1009.6 |
| 20260506001829 | 25 | 207 | 6.4 | 9.7 | 0.00 | 0.00 | 0.00 | 41 | 1009.4 |
| 20260506001725 | 25 | 209 | 4.8 | 8.0 | 0.00 | 0.00 | 0.00 | 41 | 1009.5 |
| 20260506001620 | 25 | 209 | 6.4 | 9.7 | 0.00 | 0.00 | 0.00 | 41 | 1009.5 |
| 20260506001516 | 25 | 224 | 8.0 | 16.1 | 0.00 | 0.00 | 0.00 | 41 | 1009.5 |
| 20260506001428 | 25 | 208 | 8.0 | 16.1 | 0.00 | 0.00 | 0.00 | 41 | 1009.5 |
| 20260506001323 | 25 | 202 | 8.0 | 9.7 | 0.00 | 0.00 | 0.00 | 41 | 1009.4 |
| 20260506001219 | 25 | 200 | 6.4 | 11.3 | 0.00 | 0.00 | 0.00 | 41 | 1009.4 |
| 20260506001130 | 25 | 241 | 8.0 | 11.3 | 0.00 | 0.00 | 0.00 | 41 | 1009.4 |
| 20260506001026 | 25 | 216 | 8.0 | 14.5 | 0.00 | 0.00 | 0.00 | 41 | 1009.3 |
| 20260506000921 | 25 | 213 | 3.2 | 8.0 | 0.00 | 0.00 | 0.00 | 41 | 1009.5 |
| 20260506000816 | 25 | 207 | 6.4 | 9.7 | 0.00 | 0.00 | 0.00 | 41 | 1009.4 |
| 20260506000748 | 25 | 233 | 8.0 | 14.5 | 0.00 | 0.00 | 0.00 | 40 | 1009.6 |
| 20260506000644 | 25 | 206 | 9.7 | 11.3 | 0.00 | 0.00 | 0.00 | 41 | 1009.4 |
| 20260506000520 | 25 | 214 | 8.0 | 12.9 | 0.00 | 0.00 | 0.00 | 40 | 1009.4 |
| 20260506000416 | 25 | 194 | 3.2 | 11.3 | 0.00 | 0.00 | 0.00 | 41 | 1009.3 |
| 20260506000326 | 25 | 218 | 4.8 | 6.4 | 0.00 | 0.00 | 0.00 | 40 | 1009.5 |
| 20260506000222 | 25 | 215 | 6.4 | 8.0 | 0.00 | 0.00 | 0.00 | 40 | 1009.4 |
| 20260506000138 | 25 | 276 | 4.8 | 8.0 | 0.00 | 0.00 | 0.00 | 40 | 1009.3 |
| 20260506000030 | 25 | 231 | 4.8 | 8.0 | 0.00 | 0.00 | 0.00 | 40 | 1009.3 |
| 20260505235925 | 25 | 206 | 6.4 | 14.5 | 0.00 | 0.00 | 0.00 | 40 | 1009.5 |
| 20260505235840 | 25 | 217 | 9.7 | 14.5 | 0.00 | 0.00 | 0.00 | 39 | 1009.3 |
| 20260505235716 | 25 | 217 | 4.8 | 8.0 | 0.00 | 0.00 | 0.00 | 40 | 1009.2 |
| 20260505235648 | 25 | 207 | 6.4 | 8.0 | 0.00 | 0.00 | 0.00 | 39 | 1009.4 |
| 20260505235523 | 25 | 200 | 11.3 | 16.1 | 0.00 | 0.00 | 0.00 | 39 | 1009.5 |
| 20260505235419 | 25 | 213 | 9.7 | 14.5 | 0.00 | 0.00 | 0.00 | 39 | 1009.2 |
| 20260505235331 | 25 | 207 | 6.4 | 9.7 | 0.00 | 0.00 | 0.00 | 39 | 1009.3 |
| 20260505235226 | 25 | 218 | 6.4 | 8.0 | 0.00 | 0.00 | 0.00 | 39 | 1009.2 |
| 20260505235122 | 25 | 230 | 4.8 | 16.1 | 0.00 | 0.00 | 0.00 | 39 | 1009.3 |
| 20260505235017 | 25 | 204 | 12.9 | 19.3 | 0.00 | 0.00 | 0.00 | 38 | 1009.1 |
| 20260505234929 | 25 | 205 | 8.0 | 14.5 | 0.00 | 0.00 | 0.00 | 38 | 1009.2 |
| 20260505234825 | 25 | 209 | 8.0 | 17.7 | 0.00 | 0.00 | 0.00 | 38 | 1009.4 |
| 20260505234720 | 25 | 207 | 12.9 | 20.9 | 0.00 | 0.00 | 0.00 | 38 | 1009.3 |
| 20260505234616 | 25 | 212 | 6.4 | 9.7 | 0.00 | 0.00 | 0.00 | 38 | 1009.2 |
| 20260505234527 | 25 | 210 | 6.4 | 11.3 | 0.00 | 0.00 | 0.00 | 37 | 1009.2 |
| 20260505234443 | 25 | 216 | 3.2 | 6.4 | 0.00 | 0.00 | 0.00 | 37 | 1009.4 |
| 20260505234319 | 26 | 207 | 6.4 | 8.0 | 0.00 | 0.00 | 0.00 | 37 | 1009.3 |
| 20260505234230 | 26 | 230 | 3.2 | 8.0 | 0.00 | 0.00 | 0.00 | 37 | 1009.2 |
| 20260505234126 | 26 | 213 | 4.8 | 8.0 | 0.00 | 0.00 | 0.00 | 37 | 1009.3 |
| 20260505234021 | 26 | 213 | 9.7 | 12.9 | 0.00 | 0.00 | 0.00 | 36 | 1009.0 |
| 20260505233917 | 26 | 220 | 9.7 | 14.5 | 0.00 | 0.00 | 0.00 | 36 | 1009.2 |
| 20260505233829 | 26 | 215 | 8.0 | 12.9 | 0.00 | 0.00 | 0.00 | 36 | 1009.1 |
| 20260505233724 | 26 | 202 | 11.3 | 17.7 | 0.00 | 0.00 | 0.00 | 36 | 1009.4 |
| 20260505233620 | 26 | 215 | 8.0 | 8.0 | 0.00 | 0.00 | 0.00 | 36 | 1009.1 |
| 20260505233516 | 26 | 209 | 4.8 | 6.4 | 0.00 | 0.00 | 0.00 | 36 | 1009.1 |
| 20260505233427 | 26 | 205 | 4.8 | 11.3 | 0.00 | 0.00 | 0.00 | 35 | 1009.0 |
| 20260505233403 | 26 | 217 | 6.4 | 11.3 | 0.00 | 0.00 | 0.00 | 35 | 1009.1 |
| 20260505233219 | 26 | 211 | 6.4 | 14.5 | 0.00 | 0.00 | 0.00 | 35 | 1009.0 |
| 20260505233130 | 26 | 201 | 8.0 | 14.5 | 0.00 | 0.00 | 0.00 | 35 | 1009.0 |
| 20260505233026 | 26 | 211 | 9.7 | 25.7 | 0.00 | 0.00 | 0.00 | 35 | 1008.9 |
| 20260505232941 | 26 | 207 | 14.5 | 25.7 | 0.00 | 0.00 | 0.00 | 34 | 1009.0 |
| 20260505232817 | 26 | 227 | 12.9 | 16.1 | 0.00 | 0.00 | 0.00 | 35 | 1008.9 |
| 20260505232749 | 26 | 207 | 8.0 | 14.5 | 0.00 | 0.00 | 0.00 | 35 | 1008.8 |
| 20260505232624 | 26 | 210 | 4.8 | 8.0 | 0.00 | 0.00 | 0.00 | 35 | 1008.9 |
| 20260505232520 | 26 | 263 | 3.2 | 9.7 | 0.00 | 0.00 | 0.00 | 35 | 1009.0 |
| 20260505232416 | 26 | 230 | 6.4 | 9.7 | 0.00 | 0.00 | 0.00 | 35 | 1008.9 |
| 20260505232327 | 26 | 213 | 6.4 | 9.7 | 0.00 | 0.00 | 0.00 | 35 | 1008.8 |
| 20260505232223 | 26 | 215 | 3.2 | 4.8 | 0.00 | 0.00 | 0.00 | 34 | 1008.8 |
| 20260505232118 | 26 | 204 | 3.2 | 6.4 | 0.00 | 0.00 | 0.00 | 35 | 1008.9 |
| 20260505232030 | 26 | 221 | 1.6 | 8.0 | 0.00 | 0.00 | 0.00 | 34 | 1008.8 |
| 20260505231945 | 26 | 269 | 4.8 | 8.0 | 0.00 | 0.00 | 0.00 | 34 | 1008.9 |
| 20260505231821 | 26 | 216 | 3.2 | 8.0 | 0.00 | 0.00 | 0.00 | 34 | 1008.9 |
| 20260505231717 | 26 | 234 | 3.2 | 11.3 | 0.00 | 0.00 | 0.00 | 33 | 1009.0 |
| 20260505231628 | 26 | 211 | 8.0 | 14.5 | 0.00 | 0.00 | 0.00 | 33 | 1008.7 |
| 20260505231544 | 26 | 243 | 4.8 | 14.5 | 0.00 | 0.00 | 0.00 | 33 | 1008.9 |
| 20260505231439 | 26 | 250 | 6.4 | 9.7 | 0.00 | 0.00 | 0.00 | 33 | 1008.6 |
| 20260505231351 | 26 | 262 | 6.4 | 9.7 | 0.00 | 0.00 | 0.00 | 34 | 1008.8 |
| 20260505231227 | 26 | 233 | 8.0 | 12.9 | 0.00 | 0.00 | 0.00 | 34 | 1008.7 |
| 20260505231142 | 26 | 232 | 4.8 | 8.0 | 0.00 | 0.00 | 0.00 | 34 | 1008.8 |
| 20260505231018 | 26 | 201 | 8.0 | 12.9 | 0.00 | 0.00 | 0.00 | 34 | 1008.5 |
| 20260505230929 | 26 | 230 | 4.8 | 9.7 | 0.00 | 0.00 | 0.00 | 33 | 1008.7 |
| 20260505230845 | 26 | 206 | 4.8 | 8.0 | 0.00 | 0.00 | 0.00 | 34 | 1008.7 |
| 20260505230721 | 26 | 210 | 4.8 | 8.0 | 0.00 | 0.00 | 0.00 | 33 | 1008.6 |
| 20260505230616 | 26 | 201 | 6.4 | 11.3 | 0.00 | 0.00 | 0.00 | 33 | 1008.6 |
| 20260505230528 | 26 | 211 | 3.2 | 8.0 | 0.00 | 0.00 | 0.00 | 33 | 1008.6 |
| 20260505230424 | 26 | 215 | 3.2 | 6.4 | 0.00 | 0.00 | 0.00 | 33 | 1008.6 |
| 20260505230319 | 26 | 223 | 3.2 | 8.0 | 0.00 | 0.00 | 0.00 | 32 | 1008.8 |
| 20260505230251 | 26 | 214 | 9.7 | 16.1 | 0.00 | 0.00 | 0.00 | 33 | 1008.6 |
| 20260505230126 | 26 | 240 | 9.7 | 19.3 | 0.00 | 0.00 | 0.00 | 32 | 1008.7 |
| 20260505230022 | 26 | 221 | 6.4 | 8.0 | 0.00 | 0.00 | 0.00 | 32 | 1008.6 |
| 20260505225917 | 26 | 221 | 3.2 | 6.4 | 0.00 | 0.00 | 0.00 | 33 | 1008.7 |
| 20260505225829 | 26 | 225 | 3.2 | 6.4 | 0.00 | 0.00 | 0.00 | 33 | 1008.6 |
| 20260505225724 | 26 | 261 | 3.2 | 9.7 | 0.00 | 0.00 | 0.00 | 32 | 1008.6 |
| 20260505225620 | 26 | 206 | 6.4 | 9.7 | 0.00 | 0.00 | 0.00 | 32 | 1008.6 |
| 20260505225516 | 26 | 218 | 3.2 | 12.9 | 0.00 | 0.00 | 0.00 | 32 | 1008.6 |
| 20260505225428 | 26 | 253 | 4.8 | 12.9 | 0.00 | 0.00 | 0.00 | 32 | 1008.4 |
| 20260505225323 | 26 | 220 | 6.4 | 9.7 | 0.00 | 0.00 | 0.00 | 32 | 1008.5 |
| 20260505225219 | 26 | 200 | 8.0 | 9.7 | 0.00 | 0.00 | 0.00 | 32 | 1008.7 |
| 20260505225130 | 26 | 225 | 6.4 | 11.3 | 0.00 | 0.00 | 0.00 | 32 | 1008.5 |
| 20260505225026 | 26 | 207 | 8.0 | 12.9 | 0.00 | 0.00 | 0.00 | 32 | 1008.5 |
| 20260505224922 | 26 | 209 | 8.0 | 16.1 | 0.00 | 0.00 | 0.00 | 32 | 1008.5 |
| 20260505224817 | 26 | 208 | 8.0 | 14.5 | 0.00 | 0.00 | 0.00 | 32 | 1008.6 |
| 20260505224729 | 26 | 217 | 9.7 | 17.7 | 0.00 | 0.00 | 0.00 | 31 | 1008.4 |
| 20260505224624 | 26 | 204 | 9.7 | 14.5 | 0.00 | 0.00 | 0.00 | 31 | 1008.5 |
| 20260505224520 | 26 | 206 | 6.4 | 14.5 | 0.00 | 0.00 | 0.00 | 31 | 1008.4 |
| 20260505224435 | 26 | 209 | 9.7 | 16.1 | 0.00 | 0.00 | 0.00 | 31 | 1008.4 |
| 20260505224327 | 26 | 197 | 9.7 | 20.9 | 0.00 | 0.00 | 0.00 | 31 | 1008.6 |
| 20260505224223 | 26 | 199 | 8.0 | 14.5 | 0.00 | 0.00 | 0.00 | 31 | 1008.6 |
| 20260505224119 | 26 | 259 | 6.4 | 19.3 | 0.00 | 0.00 | 0.00 | 31 | 1008.4 |
| 20260505224030 | 26 | 204 | 9.7 | 19.3 | 0.00 | 0.00 | 0.00 | 31 | 1008.4 |
| 20260505224026 | 26 | 216 | 6.4 | 12.9 | 0.00 | 0.00 | 0.00 | 31 | 1008.5 |
| 20260505223821 | 26 | 203 | 11.3 | 19.3 | 0.00 | 0.00 | 0.00 | 31 | 1008.4 |
| 20260505223717 | 26 | 204 | 14.5 | 17.7 | 0.00 | 0.00 | 0.00 | 31 | 1008.5 |
| 20260505223628 | 26 | 221 | 9.7 | 17.7 | 0.00 | 0.00 | 0.00 | 31 | 1008.6 |
| 20260505223524 | 26 | 232 | 9.7 | 17.7 | 0.00 | 0.00 | 0.00 | 31 | 1008.5 |
| 20260505223420 | 26 | 245 | 12.9 | 25.7 | 0.00 | 0.00 | 0.00 | 30 | 1008.6 |
| 20260505223315 | 26 | 201 | 14.5 | 20.9 | 0.00 | 0.00 | 0.00 | 30 | 1008.5 |
| 20260505223227 | 26 | 211 | 12.9 | 22.5 | 0.00 | 0.00 | 0.00 | 30 | 1008.6 |
| 20260505223122 | 26 | 208 | 8.0 | 17.7 | 0.00 | 0.00 | 0.00 | 31 | 1008.6 |
| 20260505223018 | 26 | 232 | 9.7 | 14.5 | 0.00 | 0.00 | 0.00 | 30 | 1008.6 |
| 20260505222950 | 26 | 211 | 16.1 | 24.1 | 0.00 | 0.00 | 0.00 | 30 | 1008.5 |
| 20260505222825 | 26 | 194 | 9.7 | 16.1 | 0.00 | 0.00 | 0.00 | 30 | 1008.4 |
| 20260505222801 | 26 | 204 | 14.5 | 22.5 | 0.00 | 0.00 | 0.00 | 29 | 1008.5 |
| 20260505222637 | 26 | 219 | 9.7 | 19.3 | 0.00 | 0.00 | 0.00 | 30 | 1008.5 |
| 20260505222528 | 26 | 216 | 9.7 | 17.7 | 0.00 | 0.00 | 0.00 | 29 | 1008.6 |
| 20260505222423 | 26 | 207 | 11.3 | 17.7 | 0.00 | 0.00 | 0.00 | 30 | 1008.4 |
| 20260505222319 | 26 | 221 | 11.3 | 19.3 | 0.00 | 0.00 | 0.00 | 30 | 1008.4 |
| 20260505222230 | 26 | 228 | 8.0 | 11.3 | 0.00 | 0.00 | 0.00 | 29 | 1008.5 |
| 20260505222126 | 27 | 226 | 8.0 | 12.9 | 0.00 | 0.00 | 0.00 | 30 | 1008.6 |
| 20260505222021 | 27 | 217 | 8.0 | 12.9 | 0.00 | 0.00 | 0.00 | 30 | 1008.5 |
| 20260505221917 | 27 | 219 | 1.6 | 3.2 | 0.00 | 0.00 | 0.00 | 30 | 1008.4 |
| 20260505221829 | 27 | 211 | 8.0 | 17.7 | 0.00 | 0.00 | 0.00 | 30 | 1008.5 |
| 20260505221724 | 27 | 222 | 9.7 | 17.7 | 0.00 | 0.00 | 0.00 | 29 | 1008.4 |
| 20260505221620 | 27 | 217 | 11.3 | 20.9 | 0.00 | 0.00 | 0.00 | 29 | 1008.6 |
| 20260505221516 | 27 | 212 | 9.7 | 22.5 | 0.00 | 0.00 | 0.00 | 29 | 1008.5 |
| 20260505221427 | 27 | 251 | 8.0 | 17.7 | 0.00 | 0.00 | 0.00 | 29 | 1008.6 |
| 20260505221323 | 27 | 208 | 12.9 | 17.7 | 0.00 | 0.00 | 0.00 | 30 | 1008.6 |
| 20260505221218 | 27 | 222 | 8.0 | 12.9 | 0.00 | 0.00 | 0.00 | 29 | 1008.4 |
| 20260505221130 | 27 | 227 | 8.0 | 14.5 | 0.00 | 0.00 | 0.00 | 29 | 1008.4 |
| 20260505221026 | 27 | 206 | 9.7 | 17.7 | 0.00 | 0.00 | 0.00 | 29 | 1008.5 |
| 20260505220921 | 27 | 234 | 4.8 | 9.7 | 0.00 | 0.00 | 0.00 | 29 | 1008.5 |
| 20260505220817 | 27 | 246 | 6.4 | 9.7 | 0.00 | 0.00 | 0.00 | 30 | 1008.6 |
| 20260505220728 | 27 | 222 | 8.0 | 14.5 | 0.00 | 0.00 | 0.00 | 30 | 1008.5 |
| 20260505220624 | 27 | 242 | 6.4 | 12.9 | 0.00 | 0.00 | 0.00 | 29 | 1008.5 |
| 20260505220520 | 27 | 213 | 6.4 | 9.7 | 0.00 | 0.00 | 0.00 | 30 | 1008.5 |
| 20260505220415 | 27 | 221 | 6.4 | 9.7 | 0.00 | 0.00 | 0.00 | 30 | 1008.4 |
| 20260505220327 | 27 | 203 | 9.7 | 16.1 | 0.00 | 0.00 | 0.00 | 29 | 1008.3 |
| 20260505220303 | 27 | 200 | 11.3 | 14.5 | 0.00 | 0.00 | 0.00 | 29 | 1008.5 |
| 20260505220118 | 27 | 304 | 6.4 | 19.3 | 0.00 | 0.00 | 0.00 | 28 | 1008.3 |
| 20260505220030 | 27 | 203 | 9.7 | 17.7 | 0.00 | 0.00 | 0.00 | 29 | 1008.3 |
| 20260505215925 | 27 | 206 | 8.0 | 12.9 | 0.00 | 0.00 | 0.00 | 30 | 1008.2 |
| 20260505215821 | 27 | 204 | 9.7 | 16.1 | 0.00 | 0.00 | 0.00 | 29 | 1008.4 |
| 20260505215717 | 27 | 227 | 9.7 | 20.9 | 0.00 | 0.00 | 0.00 | 29 | 1008.4 |
| 20260505215629 | 27 | 214 | 8.0 | 11.3 | 0.00 | 0.00 | 0.00 | 29 | 1008.3 |
| 20260505215544 | 27 | 240 | 6.4 | 17.7 | 0.00 | 0.00 | 0.00 | 29 | 1008.1 |
| 20260505215420 | 27 | 237 | 4.8 | 9.7 | 0.00 | 0.00 | 0.00 | 29 | 1008.3 |
| 20260505215315 | 27 | 234 | 9.7 | 14.5 | 0.00 | 0.00 | 0.00 | 29 | 1008.2 |
| 20260505215227 | 27 | 239 | 8.0 | 16.1 | 0.00 | 0.00 | 0.00 | 28 | 1008.0 |
| 20260505215123 | 27 | 211 | 8.0 | 12.9 | 0.00 | 0.00 | 0.00 | 29 | 1008.0 |
| 20260505215018 | 27 | 234 | 4.8 | 8.0 | 0.00 | 0.00 | 0.00 | 29 | 1007.9 |
| 20260505214930 | 27 | 207 | 11.3 | 19.3 | 0.00 | 0.00 | 0.00 | 29 | 1008.1 |
| 20260505214826 | 27 | 206 | 11.3 | 24.1 | 0.00 | 0.00 | 0.00 | 29 | 1008.0 |
| 20260505214721 | 27 | 201 | 12.9 | 24.1 | 0.00 | 0.00 | 0.00 | 29 | 1007.9 |
| 20260505214617 | 27 | 204 | 6.4 | 9.7 | 0.00 | 0.00 | 0.00 | 29 | 1008.1 |
| 20260505214549 | 27 | 225 | 6.4 | 14.5 | 0.00 | 0.00 | 0.00 | 29 | 1008.0 |
| 20260505214424 | 27 | 197 | 12.9 | 20.9 | 0.00 | 0.00 | 0.00 | 28 | 1007.9 |
| 20260505214340 | 27 | 204 | 16.1 | 25.7 | 0.00 | 0.00 | 0.00 | 29 | 1008.2 |
| 20260505214215 | 27 | 214 | 9.7 | 24.1 | 0.00 | 0.00 | 0.00 | 29 | 1008.2 |
| 20260505214127 | 27 | 207 | 11.3 | 17.7 | 0.00 | 0.00 | 0.00 | 30 | 1007.9 |
| 20260505214042 | 27 | 207 | 8.0 | 12.9 | 0.00 | 0.00 | 0.00 | 29 | 1008.1 |
| 20260505213938 | 27 | 215 | 11.3 | 24.1 | 0.00 | 0.00 | 0.00 | 29 | 1008.0 |
| 20260505213830 | 27 | 200 | 14.5 | 24.1 | 0.00 | 0.00 | 0.00 | 29 | 1007.9 |
| 20260505213725 | 27 | 208 | 9.7 | 20.9 | 0.00 | 0.00 | 0.00 | 29 | 1008.0 |
| 20260505213621 | 27 | 191 | 12.9 | 20.9 | 0.00 | 0.00 | 0.00 | 28 | 1008.0 |
| 20260505213517 | 27 | 204 | 6.4 | 11.3 | 0.00 | 0.00 | 0.00 | 29 | 1008.2 |
| 20260505213428 | 27 | 224 | 6.4 | 17.7 | 0.00 | 0.00 | 0.00 | 29 | 1008.0 |
| 20260505213344 | 27 | 230 | 11.3 | 19.3 | 0.00 | 0.00 | 0.00 | 29 | 1008.0 |
| 20260505213219 | 27 | 215 | 14.5 | 22.5 | 0.00 | 0.00 | 0.00 | 30 | 1008.2 |
| 20260505213131 | 27 | 221 | 12.9 | 22.5 | 0.00 | 0.00 | 0.00 | 30 | 1008.0 |
| 20260505213026 | 27 | 216 | 9.7 | 19.3 | 0.00 | 0.00 | 0.00 | 30 | 1007.9 |
| 20260505212922 | 28 | 240 | 8.0 | 17.7 | 0.00 | 0.00 | 0.00 | 30 | 1007.8 |
| 20260505212818 | 28 | 204 | 12.9 | 19.3 | 0.00 | 0.00 | 0.00 | 30 | 1007.9 |
| 20260505212749 | 28 | 213 | 8.0 | 16.1 | 0.00 | 0.00 | 0.00 | 31 | 1008.0 |
| 20260505212625 | 28 | 199 | 8.0 | 9.7 | 0.00 | 0.00 | 0.00 | 31 | 1007.8 |
| 20260505212520 | 28 | 208 | 11.3 | 16.1 | 0.00 | 0.00 | 0.00 | 30 | 1008.0 |
| 20260505212416 | 28 | 212 | 8.0 | 11.3 | 0.00 | 0.00 | 0.00 | 31 | 1007.9 |
| 20260505212328 | 28 | 213 | 4.8 | 6.4 | 0.00 | 0.00 | 0.00 | 31 | 1007.8 |
| 20260505212223 | 28 | 213 | 3.2 | 8.0 | 0.00 | 0.00 | 0.00 | 31 | 1007.8 |
| 20260505212119 | 28 | 211 | 9.7 | 12.9 | 0.00 | 0.00 | 0.00 | 30 | 1007.8 |
| 20260505212031 | 28 | 222 | 9.7 | 20.9 | 0.00 | 0.00 | 0.00 | 30 | 1007.8 |
| 20260505211926 | 28 | 209 | 11.3 | 19.3 | 0.00 | 0.00 | 0.00 | 30 | 1007.9 |
| 20260505211821 | 28 | 218 | 12.9 | 20.9 | 0.00 | 0.00 | 0.00 | 30 | 1007.7 |
| 20260505211716 | 28 | 187 | 6.4 | 11.3 | 0.00 | 0.00 | 0.00 | 30 | 1007.9 |
| 20260505211628 | 28 | 247 | 6.4 | 22.5 | 0.00 | 0.00 | 0.00 | 30 | 1007.7 |
| 20260505211523 | 28 | 215 | 16.1 | 22.5 | 0.00 | 0.00 | 0.00 | 30 | 1007.9 |
| 20260505211418 | 28 | 207 | 17.7 | 24.1 | 0.00 | 0.00 | 0.00 | 30 | 1007.8 |
| 20260505211349 | 28 | 224 | 11.3 | 20.9 | 0.00 | 0.00 | 0.00 | 30 | 1007.8 |
| 20260505211225 | 28 | 204 | 8.0 | 12.9 | 0.00 | 0.00 | 0.00 | 30 | 1007.7 |
| 20260505211120 | 28 | 232 | 11.3 | 14.5 | 0.00 | 0.00 | 0.00 | 30 | 1008.0 |
| 20260505211016 | 28 | 215 | 6.4 | 12.9 | 0.00 | 0.00 | 0.00 | 31 | 1007.9 |
| 20260505210927 | 28 | 221 | 4.8 | 12.9 | 0.00 | 0.00 | 0.00 | 30 | 1007.9 |
| 20260505210843 | 28 | 222 | 9.7 | 19.3 | 0.00 | 0.00 | 0.00 | 30 | 1007.8 |
| 20260505210719 | 28 | 253 | 9.7 | 19.3 | 0.00 | 0.00 | 0.00 | 30 | 1007.8 |
| 20260505210710 | 28 | 218 | 9.7 | 12.9 | 0.00 | 0.00 | 0.00 | 31 | 1008.0 |
| 20260505210526 | 28 | 220 | 9.7 | 17.7 | 0.00 | 0.00 | 0.00 | 31 | 1007.7 |
| 20260505210422 | 28 | 214 | 11.3 | 14.5 | 0.00 | 0.00 | 0.00 | 32 | 1007.8 |
| 20260505210317 | 28 | 209 | 11.3 | 17.7 | 0.00 | 0.00 | 0.00 | 31 | 1008.1 |
| 20260505210229 | 28 | 239 | 8.0 | 16.1 | 0.00 | 0.00 | 0.00 | 31 | 1007.9 |
| 20260505210124 | 28 | 203 | 11.3 | 16.1 | 0.00 | 0.00 | 0.00 | 31 | 1007.8 |
| 20260505210020 | 28 | 210 | 8.0 | 16.1 | 0.00 | 0.00 | 0.00 | 31 | 1007.7 |
| 20260505205916 | 28 | 216 | 14.5 | 24.1 | 0.00 | 0.00 | 0.00 | 31 | 1007.9 |
| 20260505205827 | 28 | 214 | 8.0 | 14.5 | 0.00 | 0.00 | 0.00 | 32 | 1007.8 |
| 20260505205723 | 28 | 208 | 9.7 | 17.7 | 0.00 | 0.00 | 0.00 | 32 | 1007.7 |
| 20260505205618 | 27 | 205 | 8.0 | 11.3 | 0.00 | 0.00 | 0.00 | 31 | 1007.9 |
| 20260505205530 | 27 | 224 | 8.0 | 12.9 | 0.00 | 0.00 | 0.00 | 32 | 1007.8 |
| 20260505205426 | 28 | 206 | 8.0 | 17.7 | 0.00 | 0.00 | 0.00 | 31 | 1007.8 |
| 20260505205321 | 28 | 222 | 12.9 | 32.2 | 0.00 | 0.00 | 0.00 | 30 | 1007.8 |
| 20260505205217 | 28 | 219 | 12.9 | 24.1 | 0.00 | 0.00 | 0.00 | 30 | 1007.9 |
| 20260505205128 | 28 | 211 | 14.5 | 24.1 | 0.00 | 0.00 | 0.00 | 31 | 1007.7 |
| 20260505205024 | 28 | 213 | 16.1 | 25.7 | 0.00 | 0.00 | 0.00 | 30 | 1007.7 |
| 20260505204919 | 28 | 218 | 12.9 | 19.3 | 0.00 | 0.00 | 0.00 | 31 | 1007.8 |
| 20260505204835 | 28 | 217 | 11.3 | 19.3 | 0.00 | 0.00 | 0.00 | 31 | 1008.0 |
| 20260505204727 | 28 | 209 | 12.9 | 19.3 | 0.00 | 0.00 | 0.00 | 32 | 1007.8 |
| 20260505204622 | 28 | 212 | 12.9 | 24.1 | 0.00 | 0.00 | 0.00 | 31 | 1007.9 |
| 20260505204518 | 28 | 273 | 12.9 | 14.5 | 0.00 | 0.00 | 0.00 | 31 | 1007.7 |
| 20260505204429 | 28 | 222 | 8.0 | 16.1 | 0.00 | 0.00 | 0.00 | 32 | 1007.9 |
| 20260505204325 | 28 | 215 | 9.7 | 17.7 | 0.00 | 0.00 | 0.00 | 32 | 1007.7 |
| 20260505204221 | 28 | 206 | 11.3 | 14.5 | 0.00 | 0.00 | 0.00 | 32 | 1007.8 |
| 20260505204116 | 28 | 199 | 8.0 | 12.9 | 0.00 | 0.00 | 0.00 | 32 | 1007.9 |
| 20260505204028 | 28 | 206 | 8.0 | 14.5 | 0.00 | 0.00 | 0.00 | 32 | 1007.9 |
| 20260505203923 | 28 | 207 | 8.0 | 9.7 | 0.00 | 0.00 | 0.00 | 32 | 1008.0 |
| 20260505203819 | 28 | 226 | 6.4 | 9.7 | 0.00 | 0.00 | 0.00 | 31 | 1007.8 |
| 20260505203751 | 28 | 229 | 11.3 | 22.5 | 0.00 | 0.00 | 0.00 | 31 | 1007.9 |
| 20260505203626 | 28 | 204 | 11.3 | 24.1 | 0.00 | 0.00 | 0.00 | 31 | 1007.9 |
| 20260505203602 | 28 | 212 | 12.9 | 22.5 | 0.00 | 0.00 | 0.00 | 31 | 1008.0 |
| 20260505203417 | 28 | 216 | 9.7 | 22.5 | 0.00 | 0.00 | 0.00 | 31 | 1007.9 |
| 20260505203329 | 28 | 203 | 11.3 | 19.3 | 0.00 | 0.00 | 0.00 | 32 | 1008.0 |
| 20260505203225 | 28 | 211 | 9.7 | 14.5 | 0.00 | 0.00 | 0.00 | 32 | 1007.9 |
| 20260505203120 | 28 | 203 | 6.4 | 11.3 | 0.00 | 0.00 | 0.00 | 32 | 1007.7 |
| 20260505203016 | 28 | 222 | 11.3 | 12.9 | 0.00 | 0.00 | 0.00 | 31 | 1007.8 |
| 20260505202928 | 28 | 229 | 11.3 | 19.3 | 0.00 | 0.00 | 0.00 | 32 | 1008.1 |
| 20260505202823 | 28 | 211 | 14.5 | 22.5 | 0.00 | 0.00 | 0.00 | 32 | 1007.9 |
| 20260505202719 | 28 | 213 | 14.5 | 24.1 | 0.00 | 0.00 | 0.00 | 31 | 1008.0 |
| 20260505202630 | 28 | 205 | 11.3 | 17.7 | 0.00 | 0.00 | 0.00 | 31 | 1008.0 |
| 20260505202526 | 28 | 231 | 8.0 | 9.7 | 0.00 | 0.00 | 0.00 | 31 | 1008.0 |
| 20260505202422 | 28 | 253 | 6.4 | 9.7 | 0.00 | 0.00 | 0.00 | 31 | 1007.9 |
| 20260505202317 | 28 | 219 | 4.8 | 9.7 | 0.00 | 0.00 | 0.00 | 31 | 1007.9 |
| 20260505202229 | 28 | 248 | 9.7 | 19.3 | 0.00 | 0.00 | 0.00 | 30 | 1007.9 |
| 20260505202124 | 28 | 216 | 9.7 | 16.1 | 0.00 | 0.00 | 0.00 | 31 | 1007.7 |
| 20260505202020 | 28 | 219 | 11.3 | 19.3 | 0.00 | 0.00 | 0.00 | 31 | 1008.0 |
| 20260505201916 | 29 | 212 | 9.7 | 16.1 | 0.00 | 0.00 | 0.00 | 31 | 1008.2 |
| 20260505201827 | 29 | 236 | 8.0 | 14.5 | 0.00 | 0.00 | 0.00 | 31 | 1007.8 |
| 20260505201723 | 28 | 228 | 3.2 | 8.0 | 0.00 | 0.00 | 0.00 | 33 | 1008.0 |
| 20260505201619 | 28 | 209 | 8.0 | 9.7 | 0.00 | 0.00 | 0.00 | 33 | 1007.9 |
| 20260505201530 | 28 | 258 | 6.4 | 9.7 | 0.00 | 0.00 | 0.00 | 32 | 1008.0 |
| 20260505201426 | 28 | 252 | 4.8 | 11.3 | 0.00 | 0.00 | 0.00 | 32 | 1007.9 |
| 20260505201321 | 28 | 237 | 9.7 | 14.5 | 0.00 | 0.00 | 0.00 | 31 | 1008.0 |
| 20260505201216 | 28 | 227 | 8.0 | 12.9 | 0.00 | 0.00 | 0.00 | 32 | 1008.0 |
| 20260505201128 | 28 | 243 | 6.4 | 11.3 | 0.00 | 0.00 | 0.00 | 32 | 1008.1 |
| 20260505201024 | 28 | 212 | 6.4 | 12.9 | 0.00 | 0.00 | 0.00 | 33 | 1008.0 |
| 20260505200919 | 28 | 220 | 9.7 | 16.1 | 0.00 | 0.00 | 0.00 | 32 | 1007.9 |
| 20260505200815 | 28 | 206 | 9.7 | 17.7 | 0.00 | 0.00 | 0.00 | 32 | 1007.9 |
| 20260505200727 | 28 | 216 | 9.7 | 16.1 | 0.00 | 0.00 | 0.00 | 33 | 1008.0 |
| 20260505200623 | 28 | 227 | 11.3 | 16.1 | 0.00 | 0.00 | 0.00 | 31 | 1007.9 |
| 20260505200518 | 28 | 240 | 8.0 | 14.5 | 0.00 | 0.00 | 0.00 | 32 | 1008.1 |
| 20260505200430 | 28 | 228 | 9.7 | 14.5 | 0.00 | 0.00 | 0.00 | 32 | 1007.9 |
| 20260505200325 | 28 | 233 | 9.7 | 17.7 | 0.00 | 0.00 | 0.00 | 32 | 1007.9 |
| 20260505200241 | 28 | 224 | 12.9 | 27.4 | 0.00 | 0.00 | 0.00 | 32 | 1007.9 |
| 20260505200117 | 28 | 208 | 17.7 | 30.6 | 0.00 | 0.00 | 0.00 | 33 | 1008.0 |
| 20260505200028 | 28 | 224 | 9.7 | 16.1 | 0.00 | 0.00 | 0.00 | 32 | 1008.0 |
| 20260505195924 | 28 | 235 | 11.3 | 19.3 | 0.00 | 0.00 | 0.00 | 32 | 1008.0 |
| 20260505195819 | 28 | 226 | 9.7 | 19.3 | 0.00 | 0.00 | 0.00 | 31 | 1008.1 |
| 20260505195715 | 28 | 231 | 12.9 | 24.1 | 0.00 | 0.00 | 0.00 | 32 | 1008.1 |
| 20260505195707 | 28 | 213 | 12.9 | 19.3 | 0.00 | 0.00 | 0.00 | 32 | 1008.1 |
| 20260505195543 | 28 | 205 | 14.5 | 17.7 | 0.00 | 0.00 | 0.00 | 31 | 1008.0 |
| 20260505195418 | 28 | 205 | 14.5 | 24.1 | 0.00 | 0.00 | 0.00 | 31 | 1008.2 |
| 20260505195330 | 28 | 206 | 17.7 | 25.7 | 0.00 | 0.00 | 0.00 | 31 | 1008.1 |
| 20260505195245 | 28 | 220 | 9.7 | 14.5 | 0.00 | 0.00 | 0.00 | 32 | 1008.1 |
| 20260505195121 | 28 | 223 | 11.3 | 19.3 | 0.00 | 0.00 | 0.00 | 31 | 1008.3 |
| 20260505195017 | 28 | 204 | 14.5 | 27.4 | 0.00 | 0.00 | 0.00 | 32 | 1008.2 |
| 20260505194948 | 28 | 203 | 16.1 | 27.4 | 0.00 | 0.00 | 0.00 | 31 | 1008.2 |
| 20260505194824 | 28 | 204 | 14.5 | 20.9 | 0.00 | 0.00 | 0.00 | 31 | 1008.2 |
| 20260505194719 | 28 | 210 | 11.3 | 14.5 | 0.00 | 0.00 | 0.00 | 30 | 1008.2 |
| 20260505194651 | 29 | 268 | 6.4 | 16.1 | 0.00 | 0.00 | 0.00 | 32 | 1008.3 |
| 20260505194526 | 29 | 228 | 8.0 | 16.1 | 0.00 | 0.00 | 0.00 | 32 | 1008.4 |
| 20260505194422 | 29 | 220 | 4.8 | 8.0 | 0.00 | 0.00 | 0.00 | 32 | 1008.2 |
| 20260505194318 | 29 | 244 | 4.8 | 8.0 | 0.00 | 0.00 | 0.00 | 33 | 1008.1 |
| 20260505194249 | 28 | 216 | 4.8 | 8.0 | 0.00 | 0.00 | 0.00 | 33 | 1008.3 |
| 20260505194205 | 28 | 216 | 6.4 | 8.0 | 0.00 | 0.00 | 0.00 | 32 | 1008.4 |
| 20260505194020 | 28 | 219 | 8.0 | 14.5 | 0.00 | 0.00 | 0.00 | 33 | 1008.4 |
| 20260505193916 | 28 | 236 | 9.7 | 14.5 | 0.00 | 0.00 | 0.00 | 32 | 1008.3 |
| 20260505193828 | 28 | 233 | 6.4 | 17.7 | 0.00 | 0.00 | 0.00 | 32 | 1008.2 |
| 20260505193723 | 28 | 206 | 12.9 | 25.7 | 0.00 | 0.00 | 0.00 | 32 | 1008.3 |
| 20260505193619 | 28 | 201 | 16.1 | 20.9 | 0.00 | 0.00 | 0.00 | 33 | 1008.2 |
| 20260505193531 | 28 | 217 | 14.5 | 22.5 | 0.00 | 0.00 | 0.00 | 32 | 1008.3 |
| 20260505193426 | 28 | 218 | 8.0 | 14.5 | 0.00 | 0.00 | 0.00 | 32 | 1008.4 |
| 20260505193322 | 28 | 219 | 12.9 | 20.9 | 0.00 | 0.00 | 0.00 | 32 | 1008.3 |
| 20260505193237 | 28 | 220 | 11.3 | 19.3 | 0.00 | 0.00 | 0.00 | 34 | 1008.4 |
| 20260505193129 | 28 | 202 | 6.4 | 8.0 | 0.00 | 0.00 | 0.00 | 33 | 1008.2 |
| 20260505193025 | 28 | 232 | 6.4 | 14.5 | 0.00 | 0.00 | 0.00 | 34 | 1008.3 |
| 20260505192920 | 28 | 197 | 12.9 | 16.1 | 0.00 | 0.00 | 0.00 | 32 | 1008.3 |
| 20260505192836 | 28 | 229 | 11.3 | 17.7 | 0.00 | 0.00 | 0.00 | 33 | 1008.3 |
| 20260505192727 | 28 | 239 | 11.3 | 19.3 | 0.00 | 0.00 | 0.00 | 32 | 1008.2 |
| 20260505192623 | 28 | 214 | 8.0 | 12.9 | 0.00 | 0.00 | 0.00 | 34 | 1008.3 |
| 20260505192539 | 28 | 214 | 6.4 | 9.7 | 0.00 | 0.00 | 0.00 | 34 | 1008.3 |
| 20260505192430 | 28 | 209 | 8.0 | 16.1 | 0.00 | 0.00 | 0.00 | 33 | 1008.5 |
| 20260505192326 | 28 | 210 | 11.3 | 17.7 | 0.00 | 0.00 | 0.00 | 33 | 1008.4 |
| 20260505192222 | 28 | 206 | 11.3 | 16.1 | 0.00 | 0.00 | 0.00 | 33 | 1008.4 |
| 20260505192117 | 28 | 260 | 8.0 | 11.3 | 0.00 | 0.00 | 0.00 | 33 | 1008.3 |
| 20260505192028 | 28 | 235 | 9.7 | 19.3 | 0.00 | 0.00 | 0.00 | 33 | 1008.7 |
| 20260505191924 | 28 | 207 | 16.1 | 22.5 | 0.00 | 0.00 | 0.00 | 34 | 1008.6 |
| 20260505191820 | 28 | 246 | 8.0 | 12.9 | 0.00 | 0.00 | 0.00 | 33 | 1008.7 |
| 20260505191716 | 28 | 247 | 6.4 | 12.9 | 0.00 | 0.00 | 0.00 | 33 | 1008.6 |
| 20260505191627 | 28 | 222 | 9.7 | 12.9 | 0.00 | 0.00 | 0.00 | 34 | 1008.7 |
| 20260505191523 | 28 | 228 | 4.8 | 11.3 | 0.00 | 0.00 | 0.00 | 34 | 1008.8 |
| 20260505191418 | 28 | 210 | 9.7 | 14.5 | 0.00 | 0.00 | 0.00 | 34 | 1008.7 |
| 20260505191330 | 28 | 218 | 9.7 | 16.1 | 0.00 | 0.00 | 0.00 | 34 | 1008.7 |
| 20260505191226 | 28 | 210 | 14.5 | 19.3 | 0.00 | 0.00 | 0.00 | 33 | 1008.8 |
| 20260505191121 | 28 | 207 | 11.3 | 19.3 | 0.00 | 0.00 | 0.00 | 32 | 1008.8 |
| 20260505191017 | 28 | 230 | 8.0 | 14.5 | 0.00 | 0.00 | 0.00 | 33 | 1008.9 |
| 20260505190948 | 28 | 216 | 9.7 | 16.1 | 0.00 | 0.00 | 0.00 | 33 | 1008.9 |
| 20260505190824 | 28 | 241 | 8.0 | 16.1 | 0.00 | 0.00 | 0.00 | 33 | 1009.0 |
| 20260505190720 | 28 | 293 | 8.0 | 14.5 | 0.00 | 0.00 | 0.00 | 33 | 1009.1 |
| 20260505190615 | 28 | 221 | 6.4 | 12.9 | 0.00 | 0.00 | 0.00 | 34 | 1009.0 |
| 20260505190527 | 28 | 210 | 11.3 | 17.7 | 0.00 | 0.00 | 0.00 | 33 | 1008.9 |
| 20260505190423 | 28 | 210 | 8.0 | 12.9 | 0.00 | 0.00 | 0.00 | 34 | 1009.2 |
| 20260505190318 | 28 | 217 | 11.3 | 20.9 | 0.00 | 0.00 | 0.00 | 34 | 1009.1 |
| 20260505190230 | 28 | 203 | 12.9 | 17.7 | 0.00 | 0.00 | 0.00 | 35 | 1009.0 |
| 20260505190206 | 28 | 214 | 8.0 | 9.7 | 0.00 | 0.00 | 0.00 | 36 | 1008.7 |
| 20260505190021 | 28 | 232 | 4.8 | 8.0 | 0.00 | 0.00 | 0.00 | 37 | 1008.8 |
| 20260505185917 | 28 | 215 | 4.8 | 9.7 | 0.00 | 0.00 | 0.00 | 37 | 1008.7 |
| 20260505185828 | 28 | 212 | 8.0 | 14.5 | 0.00 | 0.00 | 0.00 | 35 | 1008.9 |
| 20260505185724 | 28 | 209 | 9.7 | 14.5 | 0.00 | 0.00 | 0.00 | 35 | 1009.0 |
| 20260505185619 | 28 | 219 | 9.7 | 16.1 | 0.00 | 0.00 | 0.00 | 36 | 1008.8 |
| 20260505185515 | 28 | 253 | 6.4 | 9.7 | 0.00 | 0.00 | 0.00 | 36 | 1008.9 |
| 20260505185427 | 28 | 213 | 6.4 | 9.7 | 0.00 | 0.00 | 0.00 | 36 | 1008.9 |
| 20260505185322 | 28 | 206 | 8.0 | 14.5 | 0.00 | 0.00 | 0.00 | 36 | 1009.0 |
| 20260505185218 | 28 | 213 | 9.7 | 16.1 | 0.00 | 0.00 | 0.00 | 35 | 1008.9 |
| 20260505185130 | 28 | 215 | 9.7 | 16.1 | 0.00 | 0.00 | 0.00 | 36 | 1009.0 |
| 20260505185025 | 28 | 221 | 8.0 | 16.1 | 0.00 | 0.00 | 0.00 | 34 | 1008.9 |
| 20260505185001 | 28 | 207 | 6.4 | 12.9 | 0.00 | 0.00 | 0.00 | 35 | 1009.0 |
| 20260505184816 | 28 | 202 | 6.4 | 9.7 | 0.00 | 0.00 | 0.00 | 35 | 1009.2 |
| 20260505184728 | 28 | 217 | 6.4 | 14.5 | 0.00 | 0.00 | 0.00 | 34 | 1009.3 |
| 20260505184623 | 28 | 201 | 9.7 | 14.5 | 0.00 | 0.00 | 0.00 | 35 | 1009.2 |
| 20260505184519 | 28 | 202 | 9.7 | 12.9 | 0.00 | 0.00 | 0.00 | 34 | 1009.2 |
| 20260505184451 | 28 | 211 | 8.0 | 16.1 | 0.00 | 0.00 | 0.00 | 35 | 1009.4 |
| 20260505184326 | 28 | 239 | 8.0 | 17.7 | 0.00 | 0.00 | 0.00 | 34 | 1009.4 |
| 20260505184222 | 28 | 230 | 6.4 | 14.5 | 0.00 | 0.00 | 0.00 | 35 | 1009.4 |
| 20260505184117 | 28 | 208 | 9.7 | 14.5 | 0.00 | 0.00 | 0.00 | 35 | 1009.4 |
| 20260505184029 | 28 | 196 | 11.3 | 17.7 | 0.00 | 0.00 | 0.00 | 34 | 1009.4 |
| 20260505183924 | 28 | 211 | 9.7 | 20.9 | 0.00 | 0.00 | 0.00 | 34 | 1009.3 |
| 20260505183900 | 28 | 216 | 11.3 | 25.7 | 0.00 | 0.00 | 0.00 | 34 | 1009.2 |
| 20260505183736 | 28 | 198 | 14.5 | 25.7 | 0.00 | 0.00 | 0.00 | 34 | 1009.4 |
| 20260505183627 | 28 | 212 | 9.7 | 17.7 | 0.00 | 0.00 | 0.00 | 35 | 1009.5 |
| 20260505183523 | 28 | 196 | 9.7 | 17.7 | 0.00 | 0.00 | 0.00 | 34 | 1009.2 |
| 20260505183419 | 28 | 216 | 6.4 | 14.5 | 0.00 | 0.00 | 0.00 | 36 | 1009.4 |
| 20260505183346 | 28 | 213 | 8.0 | 19.3 | 0.00 | 0.00 | 0.00 | 34 | 1009.2 |
| 20260505183122 | 28 | 226 | 9.7 | 17.7 | 0.00 | 0.00 | 0.00 | 35 | 1009.4 |
| 20260505183017 | 28 | 226 | 14.5 | 17.7 | 0.00 | 0.00 | 0.00 | 34 | 1009.5 |
| 20260505182949 | 28 | 204 | 4.8 | 9.7 | 0.00 | 0.00 | 0.00 | 36 | 1009.5 |
| 20260505182844 | 28 | 232 | 8.0 | 12.9 | 0.00 | 0.00 | 0.00 | 36 | 1009.6 |
| 20260505182720 | 28 | 214 | 6.4 | 9.7 | 0.00 | 0.00 | 0.00 | 37 | 1009.4 |
| 20260505182616 | 27 | 229 | 8.0 | 14.5 | 0.00 | 0.00 | 0.00 | 36 | 1009.2 |
| 20260505182527 | 27 | 202 | 11.3 | 17.7 | 0.00 | 0.00 | 0.00 | 35 | 1009.4 |
| 20260505182423 | 27 | 206 | 12.9 | 20.9 | 0.00 | 0.00 | 0.00 | 36 | 1009.2 |
| 20260505182338 | 28 | 225 | 12.9 | 20.9 | 0.00 | 0.00 | 0.00 | 35 | 1009.6 |
| 20260505182230 | 28 | 207 | 14.5 | 22.5 | 0.00 | 0.00 | 0.00 | 37 | 1009.2 |
| 20260505182125 | 28 | 200 | 11.3 | 29.0 | 0.00 | 0.00 | 0.00 | 36 | 1009.5 |
| 20260505182021 | 28 | 201 | 12.9 | 22.5 | 0.00 | 0.00 | 0.00 | 36 | 1009.3 |
| 20260505181917 | 28 | 212 | 11.3 | 19.3 | 0.00 | 0.00 | 0.00 | 36 | 1009.4 |
| 20260505181828 | 28 | 210 | 6.4 | 12.9 | 0.00 | 0.00 | 0.00 | 37 | 1009.5 |
| 20260505181744 | 28 | 219 | 4.8 | 8.0 | 0.00 | 0.00 | 0.00 | 37 | 1009.4 |
| 20260505181620 | 28 | 223 | 6.4 | 9.7 | 0.00 | 0.00 | 0.00 | 37 | 1009.4 |
| 20260505181535 | 28 | 275 | 9.7 | 17.7 | 0.00 | 0.00 | 0.00 | 37 | 1009.6 |
| 20260505181447 | 28 | 199 | 14.5 | 25.7 | 0.00 | 0.00 | 0.00 | 37 | 1009.5 |
| 20260505181322 | 28 | 201 | 9.7 | 14.5 | 0.00 | 0.00 | 0.00 | 38 | 1009.5 |
| 20260505181218 | 28 | 217 | 6.4 | 11.3 | 0.00 | 0.00 | 0.00 | 37 | 1009.7 |
| 20260505181130 | 28 | 237 | 4.8 | 8.0 | 0.00 | 0.00 | 0.00 | 38 | 1009.4 |
| 20260505181045 | 28 | 208 | 8.0 | 14.5 | 0.00 | 0.00 | 0.00 | 39 | 1009.5 |
| 20260505180921 | 28 | 227 | 4.8 | 8.0 | 0.00 | 0.00 | 0.00 | 38 | 1009.6 |
| 20260505180836 | 28 | 218 | 8.0 | 14.5 | 0.00 | 0.00 | 0.00 | 39 | 1009.5 |
| 20260505180728 | 28 | 200 | 8.0 | 12.9 | 0.00 | 0.00 | 0.00 | 39 | 1009.5 |
| 20260505180623 | 28 | 214 | 8.0 | 11.3 | 0.00 | 0.00 | 0.00 | 39 | 1009.5 |
| 20260505180519 | 28 | 224 | 6.4 | 6.4 | 0.00 | 0.00 | 0.00 | 40 | 1009.5 |
| 20260505180431 | 28 | 251 | 8.0 | 16.1 | 0.00 | 0.00 | 0.00 | 37 | 1009.4 |
| 20260505180346 | 27 | 199 | 9.7 | 16.1 | 0.00 | 0.00 | 0.00 | 40 | 1009.6 |
| 20260505180222 | 27 | 211 | 8.0 | 11.3 | 0.00 | 0.00 | 0.00 | 40 | 1009.4 |
| 20260505180117 | 27 | 203 | 11.3 | 19.3 | 0.00 | 0.00 | 0.00 | 39 | 1009.4 |
| 20260505180109 | 27 | 222 | 12.9 | 22.5 | 0.00 | 0.00 | 0.00 | 38 | 1009.7 |
| 20260505175944 | 27 | 196 | 11.3 | 16.1 | 0.00 | 0.00 | 0.00 | 38 | 1009.6 |
| 20260505175820 | 27 | 230 | 8.0 | 12.9 | 0.00 | 0.00 | 0.00 | 39 | 1009.6 |
| 20260505175755 | 27 | 216 | 6.4 | 20.9 | 0.00 | 0.00 | 0.00 | 39 | 1009.6 |
| 20260505175647 | 27 | 205 | 16.1 | 20.9 | 0.00 | 0.00 | 0.00 | 39 | 1009.7 |
| 20260505175523 | 27 | 203 | 6.4 | 12.9 | 0.00 | 0.00 | 0.00 | 40 | 1009.5 |
| 20260505175418 | 27 | 202 | 8.0 | 12.9 | 0.00 | 0.00 | 0.00 | 39 | 1009.7 |
| 20260505175330 | 27 | 213 | 8.0 | 12.9 | 0.00 | 0.00 | 0.00 | 40 | 1009.6 |
| 20260505175226 | 27 | 225 | 6.4 | 8.0 | 0.00 | 0.00 | 0.00 | 41 | 1009.8 |
| 20260505175141 | 27 | 214 | 8.0 | 11.3 | 0.00 | 0.00 | 0.00 | 41 | 1009.7 |
| 20260505175017 | 27 | 212 | 9.7 | 14.5 | 0.00 | 0.00 | 0.00 | 40 | 1009.8 |
| 20260505174929 | 27 | 217 | 8.0 | 16.1 | 0.00 | 0.00 | 0.00 | 40 | 1009.8 |
| 20260505174824 | 27 | 211 | 3.2 | 12.9 | 0.00 | 0.00 | 0.00 | 40 | 1009.8 |
| 20260505174720 | 27 | 205 | 12.9 | 16.1 | 0.00 | 0.00 | 0.00 | 39 | 1009.8 |
| 20260505174615 | 27 | 202 | 6.4 | 9.7 | 0.00 | 0.00 | 0.00 | 40 | 1009.7 |
| 20260505174527 | 27 | 210 | 11.3 | 16.1 | 0.00 | 0.00 | 0.00 | 40 | 1009.7 |
| 20260505174422 | 27 | 211 | 8.0 | 17.7 | 0.00 | 0.00 | 0.00 | 40 | 1009.6 |
| 20260505174318 | 28 | 213 | 9.7 | 16.1 | 0.00 | 0.00 | 0.00 | 39 | 1009.8 |
| 20260505174229 | 28 | 211 | 8.0 | 17.7 | 0.00 | 0.00 | 0.00 | 39 | 1009.6 |
| 20260505174125 | 28 | 210 | 6.4 | 9.7 | 0.00 | 0.00 | 0.00 | 40 | 1009.9 |
| 20260505174021 | 28 | 205 | 6.4 | 9.7 | 0.00 | 0.00 | 0.00 | 40 | 1009.7 |
| 20260505173916 | 28 | 219 | 6.4 | 9.7 | 0.00 | 0.00 | 0.00 | 41 | 1009.7 |
| 20260505173848 | 28 | 210 | 8.0 | 11.3 | 0.00 | 0.00 | 0.00 | 39 | 1009.7 |
| 20260505173723 | 28 | 209 | 8.0 | 12.9 | 0.00 | 0.00 | 0.00 | 41 | 1009.8 |
| 20260505173619 | 28 | 206 | 8.0 | 9.7 | 0.00 | 0.00 | 0.00 | 43 | 1009.8 |
| 20260505173531 | 27 | 230 | 6.4 | 8.0 | 0.00 | 0.00 | 0.00 | 41 | 1009.7 |
| 20260505173426 | 27 | 214 | 6.4 | 9.7 | 0.00 | 0.00 | 0.00 | 41 | 1009.7 |
| 20260505173322 | 27 | 238 | 6.4 | 9.7 | 0.00 | 0.00 | 0.00 | 41 | 1009.7 |
| 20260505173217 | 27 | 216 | 12.9 | 16.1 | 0.00 | 0.00 | 0.00 | 40 | 1009.7 |
| 20260505173129 | 27 | 245 | 6.4 | 11.3 | 0.00 | 0.00 | 0.00 | 40 | 1009.9 |
| 20260505173045 | 27 | 208 | 8.0 | 11.3 | 0.00 | 0.00 | 0.00 | 41 | 1009.7 |
| 20260505172920 | 27 | 219 | 6.4 | 11.3 | 0.00 | 0.00 | 0.00 | 40 | 1009.8 |
| 20260505172816 | 27 | 209 | 6.4 | 8.0 | 0.00 | 0.00 | 0.00 | 41 | 1009.9 |
| 20260505172727 | 27 | 222 | 6.4 | 9.7 | 0.00 | 0.00 | 0.00 | 42 | 1009.9 |
| 20260505172623 | 27 | 231 | 8.0 | 14.5 | 0.00 | 0.00 | 0.00 | 41 | 1009.8 |
| 20260505172518 | 28 | 201 | 9.7 | 16.1 | 0.00 | 0.00 | 0.00 | 40 | 1009.8 |
| 20260505172430 | 28 | 205 | 6.4 | 9.7 | 0.00 | 0.00 | 0.00 | 40 | 1009.7 |
| 20260505172325 | 28 | 212 | 4.8 | 9.7 | 0.00 | 0.00 | 0.00 | 41 | 1009.8 |
| 20260505172221 | 28 | 202 | 4.8 | 6.4 | 0.00 | 0.00 | 0.00 | 42 | 1010.0 |
| 20260505172117 | 27 | 234 | 3.2 | 6.4 | 0.00 | 0.00 | 0.00 | 40 | 1010.0 |
| 20260505172028 | 27 | 230 | 6.4 | 9.7 | 0.00 | 0.00 | 0.00 | 42 | 1010.0 |
| 20260505171924 | 27 | 215 | 4.8 | 11.3 | 0.00 | 0.00 | 0.00 | 43 | 1010.0 |
| 20260505171820 | 27 | 204 | 12.9 | 19.3 | 0.00 | 0.00 | 0.00 | 41 | 1010.0 |
| 20260505171735 | 27 | 210 | 8.0 | 11.3 | 0.00 | 0.00 | 0.00 | 42 | 1009.9 |
| 20260505171627 | 27 | 208 | 8.0 | 11.3 | 0.00 | 0.00 | 0.00 | 41 | 1010.1 |
| 20260505171522 | 27 | 212 | 8.0 | 8.0 | 0.00 | 0.00 | 0.00 | 43 | 1009.9 |
| 20260505171418 | 27 | 202 | 6.4 | 8.0 | 0.00 | 0.00 | 0.00 | 43 | 1009.8 |
| 20260505171329 | 27 | 214 | 6.4 | 9.7 | 0.00 | 0.00 | 0.00 | 43 | 1010.0 |
| 20260505171224 | 27 | 209 | 6.4 | 14.5 | 0.00 | 0.00 | 0.00 | 41 | 1009.9 |
| 20260505171120 | 28 | 204 | 9.7 | 11.3 | 0.00 | 0.00 | 0.00 | 41 | 1009.9 |
| 20260505171016 | 27 | 197 | 6.4 | 9.7 | 0.00 | 0.00 | 0.00 | 41 | 1009.9 |
| 20260505170927 | 27 | 190 | 4.8 | 6.4 | 0.00 | 0.00 | 0.00 | 40 | 1009.8 |
| 20260505170822 | 28 | 201 | 6.4 | 11.3 | 0.00 | 0.00 | 0.00 | 40 | 1010.0 |
| 20260505170718 | 27 | 296 | 4.8 | 9.7 | 0.00 | 0.00 | 0.00 | 40 | 1009.8 |
| 20260505170629 | 27 | 219 | 4.8 | 6.4 | 0.00 | 0.00 | 0.00 | 40 | 1009.9 |
| 20260505170545 | 27 | 210 | 6.4 | 9.7 | 0.00 | 0.00 | 0.00 | 40 | 1009.9 |
| 20260505170500 | 27 | 285 | 4.8 | 6.4 | 0.00 | 0.00 | 0.00 | 40 | 1010.1 |
| 20260505170316 | 27 | 266 | 4.8 | 11.3 | 0.00 | 0.00 | 0.00 | 40 | 1010.1 |
| 20260505170227 | 27 | 250 | 9.7 | 14.5 | 0.00 | 0.00 | 0.00 | 39 | 1010.1 |
| 20260505170123 | 27 | 209 | 9.7 | 12.9 | 0.00 | 0.00 | 0.00 | 42 | 1010.1 |
| 20260505170019 | 27 | 202 | 6.4 | 8.0 | 0.00 | 0.00 | 0.00 | 42 | 1010.1 |
| 20260505165950 | 27 | 208 | 8.0 | 14.5 | 0.00 | 0.00 | 0.00 | 41 | 1010.0 |
| 20260505165826 | 27 | 261 | 6.4 | 11.3 | 0.00 | 0.00 | 0.00 | 41 | 1010.3 |
| 20260505165721 | 27 | 210 | 9.7 | 11.3 | 0.00 | 0.00 | 0.00 | 40 | 1010.0 |
| 20260505165617 | 27 | 205 | 9.7 | 14.5 | 0.00 | 0.00 | 0.00 | 42 | 1010.1 |
| 20260505165529 | 27 | 227 | 4.8 | 8.0 | 0.00 | 0.00 | 0.00 | 43 | 1010.1 |
| 20260505165424 | 27 | 256 | 4.8 | 6.4 | 0.00 | 0.00 | 0.00 | 42 | 1010.2 |
| 20260505165319 | 27 | 199 | 6.4 | 14.5 | 0.00 | 0.00 | 0.00 | 42 | 1010.2 |
| 20260505165215 | 27 | 196 | 4.8 | 12.9 | 0.00 | 0.00 | 0.00 | 42 | 1010.2 |
| 20260505165127 | 27 | 202 | 8.0 | 14.5 | 0.00 | 0.00 | 0.00 | 42 | 1010.2 |
| 20260505165022 | 27 | 190 | 6.4 | 8.0 | 0.00 | 0.00 | 0.00 | 41 | 1010.3 |
| 20260505164918 | 27 | 187 | 6.4 | 8.0 | 0.00 | 0.00 | 0.00 | 43 | 1010.1 |
| 20260505164829 | 27 | 203 | 4.8 | 11.3 | 0.00 | 0.00 | 0.00 | 42 | 1010.2 |
| 20260505164725 | 27 | 212 | 6.4 | 9.7 | 0.00 | 0.00 | 0.00 | 44 | 1010.2 |
| 20260505164620 | 27 | 217 | 6.4 | 16.1 | 0.00 | 0.00 | 0.00 | 41 | 1010.4 |
| 20260505164516 | 27 | 232 | 6.4 | 9.7 | 0.00 | 0.00 | 0.00 | 42 | 1010.3 |
| 20260505164448 | 27 | 203 | 6.4 | 12.9 | 0.00 | 0.00 | 0.00 | 41 | 1010.4 |
| 20260505164343 | 27 | 203 | 8.0 | 17.7 | 0.00 | 0.00 | 0.00 | 41 | 1010.3 |
| 20260505164219 | 27 | 209 | 11.3 | 17.7 | 0.00 | 0.00 | 0.00 | 42 | 1010.4 |
| 20260505164150 | 27 | 202 | 8.0 | 12.9 | 0.00 | 0.00 | 0.00 | 42 | 1010.3 |
| 20260505164026 | 27 | 207 | 6.4 | 8.0 | 0.00 | 0.00 | 0.00 | 42 | 1010.3 |
| 20260505163922 | 27 | 296 | 6.4 | 9.7 | 0.00 | 0.00 | 0.00 | 42 | 1010.2 |
| 20260505163817 | 27 | 209 | 4.8 | 6.4 | 0.00 | 0.00 | 0.00 | 42 | 1010.4 |
| 20260505163749 | 27 | 256 | 1.6 | 6.4 | 0.00 | 0.00 | 0.00 | 42 | 1010.4 |
| 20260505163625 | 27 | 213 | 6.4 | 11.3 | 0.00 | 0.00 | 0.00 | 42 | 1010.4 |
| 20260505163520 | 27 | 199 | 3.2 | 8.0 | 0.00 | 0.00 | 0.00 | 43 | 1010.4 |
| 20260505163416 | 27 | 203 | 9.7 | 14.5 | 0.00 | 0.00 | 0.00 | 42 | 1010.3 |
| 20260505163347 | 27 | 208 | 8.0 | 14.5 | 0.00 | 0.00 | 0.00 | 42 | 1010.6 |
| 20260505163223 | 27 | 188 | 6.4 | 9.7 | 0.00 | 0.00 | 0.00 | 41 | 1010.4 |
| 20260505163118 | 26 | 198 | 4.8 | 8.0 | 0.00 | 0.00 | 0.00 | 43 | 1010.3 |
| 20260505163030 | 27 | 203 | 9.7 | 14.5 | 0.00 | 0.00 | 0.00 | 42 | 1010.5 |
| 20260505162925 | 27 | 205 | 8.0 | 14.5 | 0.00 | 0.00 | 0.00 | 42 | 1010.5 |